Wetterdaten: Donnerstag, 29.01.2015
Datum Zeit Temp. Aussen +5cm Feuchte Auss Luftdruck Regen Sonnenschein Regendauer Solar Windben
29.01.2015 00:00 2,1 C 0,6 C 91 % 997,5 hPa 0,0 l/m 0 min 2 min 0 W/m 29,3 km/h (5 Bft)
29.01.2015 00:02 2,1 C 0,6 C 91 % 997,4 hPa 0,0 l/m 0 min 2 min 0 W/m 41,8 km/h (6 Bft)
29.01.2015 00:05 1,9 C 0,0 C 91 % 997,6 hPa 0,0 l/m 0 min 2 min 0 W/m 41,8 km/h (6 Bft)
29.01.2015 00:06 1,9 C 0,0 C 91 % 997,6 hPa 0,0 l/m 0 min 1 min 0 W/m 33,5 km/h (5 Bft)
29.01.2015 00:08 1,9 C 0,0 C 90 % 997,6 hPa 0,0 l/m 0 min 2 min 0 W/m 31,4 km/h (5 Bft)
29.01.2015 00:10 1,8 C 0,0 C 90 % 997,6 hPa 0,0 l/m 0 min 2 min 0 W/m 31,4 km/h (5 Bft)
29.01.2015 00:12 1,8 C 0,0 C 90 % 997,6 hPa 0,0 l/m 0 min 2 min 0 W/m 37,7 km/h (5 Bft)
29.01.2015 00:14 1,7 C 0,0 C 90 % 997,6 hPa 0,0 l/m 0 min 2 min 0 W/m 29,3 km/h (5 Bft)
29.01.2015 00:16 1,7 C 0,0 C 90 % 997,6 hPa 0,0 l/m 0 min 0 min 0 W/m 25,1 km/h (4 Bft)
29.01.2015 00:18 1,7 C 0,0 C 90 % 997,6 hPa 0,0 l/m 0 min 0 min 0 W/m 23,0 km/h (4 Bft)
29.01.2015 00:20 1,7 C 0,0 C 91 % 997,6 hPa 0,0 l/m 0 min 0 min 0 W/m 33,5 km/h (5 Bft)
29.01.2015 00:22 1,6 C 0,0 C 91 % 997,5 hPa 0,0 l/m 0 min 0 min 0 W/m 33,5 km/h (5 Bft)
29.01.2015 00:24 1,6 C 0,0 C 91 % 997,6 hPa 0,0 l/m 0 min 0 min 0 W/m 29,3 km/h (5 Bft)
29.01.2015 00:26 1,6 C 0,0 C 90 % 997,5 hPa 0,0 l/m 0 min 0 min 0 W/m 31,4 km/h (5 Bft)
29.01.2015 00:28 1,6 C 0,0 C 91 % 997,5 hPa 0,0 l/m 0 min 0 min 0 W/m 27,2 km/h (4 Bft)
29.01.2015 00:30 1,6 C 0,0 C 91 % 997,5 hPa 0,0 l/m 0 min 0 min 0 W/m 25,1 km/h (4 Bft)
29.01.2015 00:32 1,6 C 0,0 C 91 % 997,5 hPa 0,0 l/m 0 min 0 min 0 W/m 20,9 km/h (4 Bft)
29.01.2015 00:34 1,6 C 0,0 C 91 % 997,5 hPa 0,0 l/m 0 min 0 min 0 W/m 18,8 km/h (3 Bft)
29.01.2015 00:36 1,6 C 0,0 C 91 % 997,4 hPa 0,0 l/m 0 min 0 min 0 W/m 23,0 km/h (4 Bft)
29.01.2015 00:38 1,6 C 0,0 C 91 % 997,5 hPa 0,0 l/m 0 min 0 min 0 W/m 27,2 km/h (4 Bft)
29.01.2015 00:40 1,6 C 0,0 C 91 % 997,4 hPa 0,0 l/m 0 min 0 min 0 W/m 29,3 km/h (5 Bft)
29.01.2015 00:42 1,6 C 0,0 C 91 % 997,4 hPa 0,0 l/m 0 min 0 min 0 W/m 23,0 km/h (4 Bft)
29.01.2015 00:44 1,6 C 0,0 C 91 % 997,5 hPa 0,0 l/m 0 min 0 min 0 W/m 23,0 km/h (4 Bft)
29.01.2015 00:46 1,6 C 0,0 C 91 % 997,4 hPa 0,0 l/m 0 min 0 min 0 W/m 18,8 km/h (3 Bft)
29.01.2015 00:48 1,6 C 0,0 C 91 % 997,3 hPa 0,0 l/m 0 min 0 min 0 W/m 20,9 km/h (4 Bft)
29.01.2015 00:50 1,6 C 0,0 C 91 % 997,2 hPa 0,0 l/m 0 min 0 min 0 W/m 18,8 km/h (3 Bft)
29.01.2015 00:52 1,6 C 0,0 C 91 % 997,2 hPa 0,0 l/m 0 min 0 min 0 W/m 23,0 km/h (4 Bft)
29.01.2015 00:54 1,5 C 0,0 C 91 % 997,2 hPa 0,0 l/m 0 min 0 min 0 W/m 20,9 km/h (4 Bft)
29.01.2015 00:56 1,5 C 0,0 C 91 % 997,2 hPa 0,0 l/m 0 min 0 min 0 W/m 18,8 km/h (3 Bft)
29.01.2015 00:58 1,5 C 0,0 C 91 % 997,1 hPa 0,0 l/m 0 min 0 min 0 W/m 20,9 km/h (4 Bft)
29.01.2015 01:00 1,4 C 0,0 C 91 % 997,2 hPa 0,0 l/m 0 min 0 min 0 W/m 20,9 km/h (4 Bft)
29.01.2015 01:02 1,4 C 0,0 C 91 % 997,0 hPa 0,0 l/m 0 min 0 min 0 W/m 20,9 km/h (4 Bft)
29.01.2015 01:04 1,4 C 0,0 C 91 % 997,1 hPa 0,0 l/m 0 min 0 min 0 W/m 31,4 km/h (5 Bft)
29.01.2015 01:06 1,4 C 0,0 C 92 % 997,0 hPa 0,0 l/m 0 min 0 min 0 W/m 25,1 km/h (4 Bft)
29.01.2015 01:08 1,4 C 0,0 C 92 % 997,0 hPa 0,0 l/m 0 min 0 min 0 W/m 18,8 km/h (3 Bft)
29.01.2015 01:10 1,4 C 0,0 C 92 % 997,0 hPa 0,0 l/m 0 min 0 min 0 W/m 27,2 km/h (4 Bft)
29.01.2015 01:12 1,4 C 0,0 C 92 % 997,0 hPa 0,0 l/m 0 min 0 min 0 W/m 27,2 km/h (4 Bft)
29.01.2015 01:14 1,4 C 0,0 C 92 % 997,0 hPa 0,0 l/m 0 min 0 min 0 W/m 20,9 km/h (4 Bft)
29.01.2015 01:16 1,4 C 0,0 C 92 % 997,0 hPa 0,0 l/m 0 min 0 min 0 W/m 23,0 km/h (4 Bft)
29.01.2015 01:18 1,4 C 0,0 C 92 % 997,0 hPa 0,0 l/m 0 min 0 min 0 W/m 18,8 km/h (3 Bft)
29.01.2015 01:20 1,4 C 0,0 C 92 % 996,9 hPa 0,0 l/m 0 min 0 min 0 W/m 23,0 km/h (4 Bft)
29.01.2015 01:22 1,3 C 0,0 C 92 % 996,9 hPa 0,0 l/m 0 min 0 min 0 W/m 25,1 km/h (4 Bft)
29.01.2015 01:24 1,3 C 0,0 C 92 % 996,9 hPa 0,0 l/m 0 min 0 min 0 W/m 33,5 km/h (5 Bft)
29.01.2015 01:26 1,3 C 0,0 C 92 % 997,0 hPa 0,0 l/m 0 min 0 min 0 W/m 27,2 km/h (4 Bft)
29.01.2015 01:28 1,3 C 0,0 C 92 % 997,0 hPa 0,0 l/m 0 min 0 min 0 W/m 27,2 km/h (4 Bft)
29.01.2015 01:30 1,3 C 0,0 C 92 % 997,0 hPa 0,0 l/m 0 min 0 min 0 W/m 29,3 km/h (5 Bft)
29.01.2015 01:32 1,3 C 0,0 C 92 % 996,9 hPa 0,0 l/m 0 min 0 min 0 W/m 25,1 km/h (4 Bft)
29.01.2015 01:34 1,3 C 0,0 C 92 % 996,9 hPa 0,0 l/m 0 min 0 min 0 W/m 31,4 km/h (5 Bft)
29.01.2015 01:36 1,3 C 0,0 C 92 % 996,9 hPa 0,0 l/m 0 min 0 min 0 W/m 27,2 km/h (4 Bft)
29.01.2015 01:38 1,3 C 0,0 C 92 % 996,9 hPa 0,0 l/m 0 min 0 min 0 W/m 29,3 km/h (5 Bft)
29.01.2015 01:40 1,3 C 0,0 C 91 % 996,8 hPa 0,0 l/m 0 min 0 min 0 W/m 31,4 km/h (5 Bft)
29.01.2015 01:42 1,3 C 0,0 C 91 % 996,8 hPa 0,0 l/m 0 min 0 min 0 W/m 18,8 km/h (3 Bft)
29.01.2015 01:44 1,3 C 0,0 C 91 % 996,8 hPa 0,0 l/m 0 min 0 min 0 W/m 31,4 km/h (5 Bft)
29.01.2015 01:46 1,3 C 0,0 C 91 % 996,7 hPa 0,0 l/m 0 min 0 min 0 W/m 27,2 km/h (4 Bft)
29.01.2015 01:48 1,3 C 0,0 C 91 % 996,8 hPa 0,0 l/m 0 min 0 min 0 W/m 39,7 km/h (6 Bft)
29.01.2015 01:50 1,3 C 0,0 C 91 % 996,7 hPa 0,0 l/m 0 min 0 min 0 W/m 27,2 km/h (4 Bft)
29.01.2015 01:52 1,3 C 0,0 C 91 % 996,7 hPa 0,0 l/m 0 min 0 min 0 W/m 27,2 km/h (4 Bft)
29.01.2015 01:54 1,3 C 0,0 C 91 % 996,7 hPa 0,0 l/m 0 min 0 min 0 W/m 27,2 km/h (4 Bft)
29.01.2015 01:56 1,3 C 0,0 C 91 % 996,7 hPa 0,0 l/m 0 min 0 min 0 W/m 27,2 km/h (4 Bft)
29.01.2015 01:58 1,3 C 0,0 C 90 % 996,6 hPa 0,0 l/m 0 min 0 min 0 W/m 25,1 km/h (4 Bft)
29.01.2015 02:00 1,3 C 0,0 C 90 % 996,6 hPa 0,0 l/m 0 min 0 min 0 W/m 18,8 km/h (3 Bft)
29.01.2015 02:02 1,3 C 0,0 C 90 % 996,5 hPa 0,0 l/m 0 min 0 min 0 W/m 27,2 km/h (4 Bft)
29.01.2015 02:04 1,3 C 0,0 C 90 % 996,6 hPa 0,0 l/m 0 min 0 min 0 W/m 27,2 km/h (4 Bft)
29.01.2015 02:06 1,3 C 0,0 C 90 % 996,5 hPa 0,0 l/m 0 min 0 min 0 W/m 31,4 km/h (5 Bft)
29.01.2015 02:08 1,3 C 0,0 C 90 % 996,5 hPa 0,0 l/m 0 min 0 min 0 W/m 31,4 km/h (5 Bft)
29.01.2015 02:10 1,3 C 0,0 C 90 % 996,5 hPa 0,0 l/m 0 min 0 min 0 W/m 18,8 km/h (3 Bft)
29.01.2015 02:12 1,3 C 0,0 C 90 % 996,4 hPa 0,0 l/m 0 min 0 min 0 W/m 20,9 km/h (4 Bft)
29.01.2015 02:14 1,3 C 0,0 C 90 % 996,4 hPa 0,0 l/m 0 min 0 min 0 W/m 23,0 km/h (4 Bft)
29.01.2015 02:16 1,3 C 0,0 C 90 % 996,4 hPa 0,0 l/m 0 min 0 min 0 W/m 25,1 km/h (4 Bft)
29.01.2015 02:18 1,3 C 0,0 C 90 % 996,3 hPa 0,0 l/m 0 min 0 min 0 W/m 27,2 km/h (4 Bft)
29.01.2015 02:20 1,3 C 0,0 C 89 % 996,4 hPa 0,0 l/m 0 min 0 min 0 W/m 29,3 km/h (5 Bft)
29.01.2015 02:22 1,3 C 0,0 C 89 % 996,3 hPa 0,0 l/m 0 min 0 min 0 W/m 27,2 km/h (4 Bft)
29.01.2015 02:24 1,3 C 0,0 C 89 % 996,3 hPa 0,0 l/m 0 min 0 min 0 W/m 41,8 km/h (6 Bft)
29.01.2015 02:26 1,3 C 0,0 C 89 % 996,2 hPa 0,0 l/m 0 min 0 min 0 W/m 23,0 km/h (4 Bft)
29.01.2015 02:28 1,3 C 0,0 C 89 % 996,2 hPa 0,0 l/m 0 min 0 min 0 W/m 29,3 km/h (5 Bft)
29.01.2015 02:30 1,3 C 0,0 C 89 % 996,2 hPa 0,0 l/m 0 min 0 min 0 W/m 29,3 km/h (5 Bft)
29.01.2015 02:32 1,3 C 0,0 C 89 % 996,2 hPa 0,0 l/m 0 min 0 min 0 W/m 18,8 km/h (3 Bft)
29.01.2015 02:34 1,3 C 0,0 C 89 % 996,2 hPa 0,0 l/m 0 min 0 min 0 W/m 23,0 km/h (4 Bft)
29.01.2015 02:36 1,3 C 0,0 C 89 % 996,2 hPa 0,0 l/m 0 min 0 min 0 W/m 27,2 km/h (4 Bft)
29.01.2015 02:38 1,3 C 0,0 C 89 % 996,1 hPa 0,0 l/m 0 min 0 min 0 W/m 31,4 km/h (5 Bft)
29.01.2015 02:40 1,3 C 0,0 C 89 % 996,2 hPa 0,0 l/m 0 min 0 min 0 W/m 25,1 km/h (4 Bft)
29.01.2015 02:42 1,3 C 0,0 C 88 % 996,2 hPa 0,0 l/m 0 min 0 min 0 W/m 31,4 km/h (5 Bft)
29.01.2015 02:44 1,3 C 0,0 C 88 % 996,2 hPa 0,0 l/m 0 min 0 min 0 W/m 37,7 km/h (5 Bft)
29.01.2015 02:46 1,3 C 0,0 C 88 % 996,1 hPa 0,0 l/m 0 min 0 min 0 W/m 23,0 km/h (4 Bft)
29.01.2015 02:48 1,3 C 0,0 C 88 % 996,1 hPa 0,0 l/m 0 min 0 min 0 W/m 27,2 km/h (4 Bft)
29.01.2015 02:50 1,3 C 0,0 C 88 % 996,1 hPa 0,0 l/m 0 min 0 min 0 W/m 23,0 km/h (4 Bft)
29.01.2015 02:52 1,3 C 0,0 C 88 % 996,1 hPa 0,0 l/m 0 min 0 min 0 W/m 29,3 km/h (5 Bft)
29.01.2015 02:54 1,3 C 0,0 C 88 % 996,0 hPa 0,0 l/m 0 min 0 min 0 W/m 23,0 km/h (4 Bft)
29.01.2015 02:56 1,3 C 0,0 C 88 % 996,0 hPa 0,0 l/m 0 min 0 min 0 W/m 31,4 km/h (5 Bft)
29.01.2015 02:58 1,3 C 0,0 C 88 % 996,1 hPa 0,0 l/m 0 min 0 min 0 W/m 23,0 km/h (4 Bft)
29.01.2015 03:00 1,3 C 0,0 C 88 % 996,1 hPa 0,0 l/m 0 min 0 min 0 W/m 27,2 km/h (4 Bft)
29.01.2015 03:02 1,3 C 0,0 C 88 % 996,0 hPa 0,0 l/m 0 min 0 min 0 W/m 29,3 km/h (5 Bft)
29.01.2015 03:04 1,3 C 0,0 C 87 % 996,0 hPa 0,0 l/m 0 min 0 min 0 W/m 31,4 km/h (5 Bft)
29.01.2015 03:06 1,3 C 0,0 C 87 % 996,0 hPa 0,0 l/m 0 min 0 min 0 W/m 31,4 km/h (5 Bft)
29.01.2015 03:08 1,3 C 0,0 C 87 % 995,9 hPa 0,0 l/m 0 min 0 min 0 W/m 29,3 km/h (5 Bft)
29.01.2015 03:10 1,3 C 0,0 C 87 % 995,9 hPa 0,0 l/m 0 min 0 min 0 W/m 25,1 km/h (4 Bft)
29.01.2015 03:12 1,3 C 0,0 C 87 % 995,9 hPa 0,0 l/m 0 min 0 min 0 W/m 29,3 km/h (5 Bft)
29.01.2015 03:14 1,3 C 0,0 C 87 % 995,9 hPa 0,0 l/m 0 min 0 min 0 W/m 39,7 km/h (6 Bft)
29.01.2015 03:16 1,3 C 0,0 C 87 % 995,7 hPa 0,0 l/m 0 min 0 min 0 W/m 29,3 km/h (5 Bft)
29.01.2015 03:18 1,3 C 0,0 C 87 % 995,7 hPa 0,0 l/m 0 min 0 min 0 W/m 27,2 km/h (4 Bft)
29.01.2015 03:20 1,3 C 0,0 C 87 % 995,7 hPa 0,0 l/m 0 min 0 min 0 W/m 29,3 km/h (5 Bft)
29.01.2015 03:22 1,3 C 0,0 C 87 % 995,8 hPa 0,0 l/m 0 min 0 min 0 W/m 37,7 km/h (5 Bft)
29.01.2015 03:24 1,4 C 0,0 C 87 % 995,7 hPa 0,0 l/m 0 min 0 min 0 W/m 35,6 km/h (5 Bft)
29.01.2015 03:26 1,4 C 0,0 C 87 % 995,6 hPa 0,0 l/m 0 min 0 min 0 W/m 35,6 km/h (5 Bft)
29.01.2015 03:28 1,4 C 0,0 C 86 % 995,5 hPa 0,0 l/m 0 min 0 min 0 W/m 31,4 km/h (5 Bft)
29.01.2015 03:30 1,4 C 0,0 C 86 % 995,6 hPa 0,0 l/m 0 min 0 min 0 W/m 33,5 km/h (5 Bft)
29.01.2015 03:32 1,4 C 0,0 C 86 % 995,5 hPa 0,0 l/m 0 min 0 min 0 W/m 23,0 km/h (4 Bft)
29.01.2015 03:34 1,4 C 0,0 C 86 % 995,5 hPa 0,0 l/m 0 min 0 min 0 W/m 29,3 km/h (5 Bft)
29.01.2015 03:36 1,4 C 0,0 C 86 % 995,5 hPa 0,0 l/m 0 min 0 min 0 W/m 33,5 km/h (5 Bft)
29.01.2015 03:38 1,4 C 0,0 C 86 % 995,4 hPa 0,0 l/m 0 min 0 min 0 W/m 31,4 km/h (5 Bft)
29.01.2015 03:40 1,4 C 0,0 C 86 % 995,5 hPa 0,0 l/m 0 min 0 min 0 W/m 37,7 km/h (5 Bft)
29.01.2015 03:42 1,4 C 0,0 C 86 % 995,4 hPa 0,0 l/m 0 min 0 min 0 W/m 16,7 km/h (3 Bft)
29.01.2015 03:44 1,4 C 0,0 C 86 % 995,4 hPa 0,0 l/m 0 min 0 min 0 W/m 23,0 km/h (4 Bft)
29.01.2015 03:46 1,4 C 0,0 C 86 % 995,3 hPa 0,0 l/m 0 min 0 min 0 W/m 39,7 km/h (6 Bft)
29.01.2015 03:48 1,4 C 0,0 C 86 % 995,3 hPa 0,0 l/m 0 min 0 min 0 W/m 25,1 km/h (4 Bft)
29.01.2015 03:50 1,4 C 0,0 C 86 % 995,3 hPa 0,0 l/m 0 min 0 min 0 W/m 25,1 km/h (4 Bft)
29.01.2015 03:52 1,4 C 0,0 C 86 % 995,3 hPa 0,0 l/m 0 min 0 min 0 W/m 27,2 km/h (4 Bft)
29.01.2015 03:54 1,4 C 0,0 C 86 % 995,2 hPa 0,0 l/m 0 min 0 min 0 W/m 27,2 km/h (4 Bft)
29.01.2015 03:56 1,4 C 0,0 C 86 % 995,2 hPa 0,0 l/m 0 min 0 min 0 W/m 25,1 km/h (4 Bft)
29.01.2015 03:58 1,3 C 0,0 C 86 % 995,2 hPa 0,0 l/m 0 min 0 min 0 W/m 25,1 km/h (4 Bft)
29.01.2015 04:00 1,3 C 0,0 C 86 % 995,2 hPa 0,0 l/m 0 min 0 min 0 W/m 27,2 km/h (4 Bft)
29.01.2015 04:02 1,3 C 0,0 C 86 % 995,2 hPa 0,0 l/m 0 min 0 min 0 W/m 16,7 km/h (3 Bft)
29.01.2015 04:04 1,3 C 0,0 C 86 % 995,0 hPa 0,0 l/m 0 min 0 min 0 W/m 25,1 km/h (4 Bft)
29.01.2015 04:06 1,3 C 0,0 C 86 % 995,1 hPa 0,0 l/m 0 min 0 min 0 W/m 23,0 km/h (4 Bft)
29.01.2015 04:08 1,3 C 0,0 C 86 % 995,1 hPa 0,0 l/m 0 min 0 min 0 W/m 29,3 km/h (5 Bft)
29.01.2015 04:10 1,3 C 0,0 C 86 % 995,0 hPa 0,0 l/m 0 min 0 min 0 W/m 18,8 km/h (3 Bft)
29.01.2015 04:12 1,3 C 0,0 C 86 % 995,0 hPa 0,0 l/m 0 min 0 min 0 W/m 29,3 km/h (5 Bft)
29.01.2015 04:14 1,3 C 0,0 C 86 % 995,0 hPa 0,0 l/m 0 min 0 min 0 W/m 31,4 km/h (5 Bft)
29.01.2015 04:16 1,3 C 0,0 C 86 % 994,9 hPa 0,0 l/m 0 min 0 min 0 W/m 41,8 km/h (6 Bft)
29.01.2015 04:18 1,3 C 0,0 C 86 % 994,9 hPa 0,0 l/m 0 min 0 min 0 W/m 27,2 km/h (4 Bft)
29.01.2015 04:20 1,3 C 0,0 C 86 % 994,8 hPa 0,0 l/m 0 min 0 min 0 W/m 23,0 km/h (4 Bft)
29.01.2015 04:22 1,4 C 0,0 C 86 % 994,8 hPa 0,0 l/m 0 min 0 min 0 W/m 29,3 km/h (5 Bft)
29.01.2015 04:24 1,4 C 0,0 C 86 % 994,6 hPa 0,0 l/m 0 min 0 min 0 W/m 31,4 km/h (5 Bft)
29.01.2015 04:26 1,4 C 0,0 C 86 % 994,6 hPa 0,0 l/m 0 min 0 min 0 W/m 23,0 km/h (4 Bft)
29.01.2015 04:28 1,4 C 0,0 C 86 % 994,6 hPa 0,0 l/m 0 min 0 min 0 W/m 29,3 km/h (5 Bft)
29.01.2015 04:30 1,4 C 0,0 C 86 % 994,5 hPa 0,0 l/m 0 min 0 min 0 W/m 25,1 km/h (4 Bft)
29.01.2015 04:32 1,4 C 0,0 C 86 % 994,5 hPa 0,0 l/m 0 min 0 min 0 W/m 27,2 km/h (4 Bft)
29.01.2015 04:34 1,4 C 0,0 C 86 % 994,5 hPa 0,0 l/m 0 min 0 min 0 W/m 27,2 km/h (4 Bft)
29.01.2015 04:36 1,4 C 0,0 C 86 % 994,4 hPa 0,0 l/m 0 min 0 min 0 W/m 37,7 km/h (5 Bft)
29.01.2015 04:38 1,4 C 0,0 C 86 % 994,4 hPa 0,0 l/m 0 min 0 min 0 W/m 23,0 km/h (4 Bft)
29.01.2015 04:40 1,5 C 0,6 C 86 % 994,3 hPa 0,0 l/m 0 min 0 min 0 W/m 31,4 km/h (5 Bft)
29.01.2015 04:42 1,5 C 0,6 C 86 % 994,4 hPa 0,0 l/m 0 min 0 min 0 W/m 31,4 km/h (5 Bft)
29.01.2015 04:44 1,6 C 0,6 C 86 % 994,4 hPa 0,0 l/m 0 min 0 min 0 W/m 27,2 km/h (4 Bft)
29.01.2015 04:46 1,6 C 0,6 C 86 % 994,3 hPa 0,0 l/m 0 min 0 min 0 W/m 27,2 km/h (4 Bft)
29.01.2015 04:48 1,6 C 0,6 C 86 % 994,2 hPa 0,0 l/m 0 min 0 min 0 W/m 25,1 km/h (4 Bft)
29.01.2015 04:50 1,6 C 0,6 C 86 % 994,2 hPa 0,0 l/m 0 min 0 min 0 W/m 29,3 km/h (5 Bft)
29.01.2015 04:52 1,6 C 0,6 C 86 % 994,1 hPa 0,0 l/m 0 min 0 min 0 W/m 23,0 km/h (4 Bft)
29.01.2015 04:54 1,6 C 0,6 C 86 % 994,1 hPa 0,0 l/m 0 min 0 min 0 W/m 27,2 km/h (4 Bft)
29.01.2015 04:56 1,6 C 0,6 C 86 % 994,0 hPa 0,0 l/m 0 min 0 min 0 W/m 25,1 km/h (4 Bft)
29.01.2015 04:58 1,7 C 0,6 C 86 % 994,0 hPa 0,0 l/m 0 min 0 min 0 W/m 31,4 km/h (5 Bft)
29.01.2015 05:00 1,7 C 0,6 C 86 % 994,0 hPa 0,0 l/m 0 min 0 min 0 W/m 35,6 km/h (5 Bft)
29.01.2015 05:02 1,7 C 0,6 C 86 % 993,8 hPa 0,0 l/m 0 min 0 min 0 W/m 35,6 km/h (5 Bft)
29.01.2015 05:04 1,7 C 0,6 C 86 % 993,8 hPa 0,0 l/m 0 min 0 min 0 W/m 31,4 km/h (5 Bft)
29.01.2015 05:06 1,7 C 0,6 C 86 % 993,7 hPa 0,0 l/m 0 min 0 min 0 W/m 25,1 km/h (4 Bft)
29.01.2015 05:08 1,8 C 0,6 C 86 % 993,7 hPa 0,0 l/m 0 min 0 min 0 W/m 29,3 km/h (5 Bft)
29.01.2015 05:10 1,8 C 0,6 C 86 % 993,6 hPa 0,0 l/m 0 min 0 min 0 W/m 25,1 km/h (4 Bft)
29.01.2015 05:12 1,8 C 0,6 C 86 % 993,6 hPa 0,0 l/m 0 min 0 min 0 W/m 33,5 km/h (5 Bft)
29.01.2015 05:14 1,8 C 0,6 C 86 % 993,6 hPa 0,0 l/m 0 min 0 min 0 W/m 27,2 km/h (4 Bft)
29.01.2015 05:16 1,8 C 0,6 C 86 % 993,6 hPa 0,0 l/m 0 min 0 min 0 W/m 27,2 km/h (4 Bft)
29.01.2015 05:18 1,8 C 0,6 C 86 % 993,4 hPa 0,0 l/m 0 min 0 min 0 W/m 25,1 km/h (4 Bft)
29.01.2015 05:20 1,8 C 0,6 C 86 % 993,5 hPa 0,0 l/m 0 min 0 min 0 W/m 27,2 km/h (4 Bft)
29.01.2015 05:22 1,8 C 0,6 C 86 % 993,3 hPa 0,0 l/m 0 min 0 min 0 W/m 29,3 km/h (5 Bft)
29.01.2015 05:24 1,8 C 0,6 C 86 % 993,3 hPa 0,0 l/m 0 min 0 min 0 W/m 29,3 km/h (5 Bft)
29.01.2015 05:26 1,8 C 0,6 C 86 % 993,3 hPa 0,0 l/m 0 min 0 min 0 W/m 35,6 km/h (5 Bft)
29.01.2015 05:28 1,9 C 0,6 C 86 % 993,3 hPa 0,0 l/m 0 min 0 min 0 W/m 25,1 km/h (4 Bft)
29.01.2015 05:30 1,9 C 0,6 C 86 % 993,3 hPa 0,0 l/m 0 min 0 min 0 W/m 43,9 km/h (6 Bft)
29.01.2015 05:32 1,9 C 0,6 C 86 % 993,3 hPa 0,0 l/m 0 min 0 min 0 W/m 35,6 km/h (5 Bft)
29.01.2015 05:34 1,9 C 0,6 C 86 % 993,2 hPa 0,0 l/m 0 min 0 min 0 W/m 39,7 km/h (6 Bft)
29.01.2015 05:36 2,0 C 0,6 C 85 % 993,0 hPa 0,0 l/m 0 min 0 min 0 W/m 27,2 km/h (4 Bft)
29.01.2015 05:38 2,0 C 0,6 C 85 % 993,1 hPa 0,0 l/m 0 min 0 min 0 W/m 37,7 km/h (5 Bft)
29.01.2015 05:40 2,0 C 0,6 C 85 % 993,0 hPa 0,0 l/m 0 min 0 min 0 W/m 27,2 km/h (4 Bft)
29.01.2015 05:42 2,1 C 0,6 C 85 % 992,9 hPa 0,0 l/m 0 min 0 min 0 W/m 25,1 km/h (4 Bft)
29.01.2015 05:44 2,1 C 0,6 C 85 % 993,0 hPa 0,0 l/m 0 min 0 min 0 W/m 37,7 km/h (5 Bft)
29.01.2015 05:46 2,1 C 0,6 C 85 % 992,9 hPa 0,0 l/m 0 min 0 min 0 W/m 31,4 km/h (5 Bft)
29.01.2015 05:48 2,1 C 0,6 C 85 % 992,9 hPa 0,0 l/m 0 min 0 min 0 W/m 37,7 km/h (5 Bft)
29.01.2015 05:50 2,1 C 0,6 C 85 % 992,7 hPa 0,0 l/m 0 min 0 min 0 W/m 48,1 km/h (6 Bft)
29.01.2015 05:52 2,1 C 0,6 C 85 % 992,7 hPa 0,0 l/m 0 min 0 min 0 W/m 31,4 km/h (5 Bft)
29.01.2015 05:54 2,1 C 0,6 C 85 % 992,7 hPa 0,0 l/m 0 min 0 min 0 W/m 37,7 km/h (5 Bft)
29.01.2015 05:56 2,1 C 0,6 C 85 % 992,6 hPa 0,0 l/m 0 min 0 min 0 W/m 29,3 km/h (5 Bft)
29.01.2015 05:58 2,1 C 0,6 C 85 % 992,7 hPa 0,0 l/m 0 min 0 min 0 W/m 27,2 km/h (4 Bft)
29.01.2015 06:00 2,1 C 0,6 C 85 % 992,7 hPa 0,0 l/m 0 min 0 min 0 W/m 39,7 km/h (6 Bft)
29.01.2015 06:02 2,2 C 0,6 C 86 % 992,6 hPa 0,0 l/m 0 min 0 min 0 W/m 35,6 km/h (5 Bft)
29.01.2015 06:06 2,2 C 0,6 C 86 % 992,5 hPa 0,0 l/m 0 min 0 min 0 W/m 37,7 km/h (5 Bft)
29.01.2015 06:08 2,2 C 1,1 C 86 % 992,5 hPa 0,0 l/m 0 min 0 min 0 W/m 31,4 km/h (5 Bft)
29.01.2015 06:10 2,2 C 0,6 C 86 % 992,5 hPa 0,0 l/m 0 min 0 min 0 W/m 35,6 km/h (5 Bft)
29.01.2015 06:12 2,2 C 0,6 C 86 % 992,5 hPa 0,0 l/m 0 min 0 min 0 W/m 31,4 km/h (5 Bft)
29.01.2015 06:14 2,2 C 0,6 C 86 % 992,4 hPa 0,0 l/m 0 min 0 min 0 W/m 37,7 km/h (5 Bft)
29.01.2015 06:16 2,2 C 0,6 C 86 % 992,4 hPa 0,0 l/m 0 min 0 min 0 W/m 29,3 km/h (5 Bft)
29.01.2015 06:18 2,2 C 0,6 C 86 % 992,3 hPa 0,0 l/m 0 min 0 min 0 W/m 33,5 km/h (5 Bft)
29.01.2015 06:20 2,2 C 0,6 C 86 % 992,3 hPa 0,0 l/m 0 min 0 min 0 W/m 29,3 km/h (5 Bft)
29.01.2015 06:22 2,2 C 0,6 C 86 % 992,3 hPa 0,0 l/m 0 min 0 min 0 W/m 39,7 km/h (6 Bft)
29.01.2015 06:24 2,2 C 1,1 C 86 % 992,3 hPa 0,0 l/m 0 min 0 min 0 W/m 43,9 km/h (6 Bft)
29.01.2015 06:26 2,3 C 1,1 C 86 % 992,2 hPa 0,0 l/m 0 min 0 min 0 W/m 41,8 km/h (6 Bft)
29.01.2015 06:28 2,3 C 1,1 C 86 % 992,3 hPa 0,0 l/m 0 min 0 min 0 W/m 46,0 km/h (6 Bft)
29.01.2015 06:30 2,3 C 1,1 C 86 % 992,3 hPa 0,0 l/m 0 min 0 min 0 W/m 46,0 km/h (6 Bft)
29.01.2015 06:32 2,3 C 1,1 C 86 % 992,2 hPa 0,0 l/m 0 min 0 min 0 W/m 35,6 km/h (5 Bft)
29.01.2015 06:34 2,3 C 1,1 C 86 % 992,2 hPa 0,0 l/m 0 min 0 min 0 W/m 31,4 km/h (5 Bft)
29.01.2015 06:36 2,3 C 0,6 C 86 % 992,2 hPa 0,0 l/m 0 min 0 min 0 W/m 37,7 km/h (5 Bft)
29.01.2015 06:38 2,3 C 1,1 C 86 % 992,2 hPa 0,0 l/m 0 min 0 min 0 W/m 33,5 km/h (5 Bft)
29.01.2015 06:40 2,3 C 1,1 C 86 % 992,2 hPa 0,0 l/m 0 min 0 min 0 W/m 46,0 km/h (6 Bft)
29.01.2015 06:42 2,3 C 1,1 C 86 % 992,2 hPa 0,0 l/m 0 min 0 min 0 W/m 37,7 km/h (5 Bft)
29.01.2015 06:44 2,3 C 1,1 C 86 % 992,2 hPa 0,0 l/m 0 min 0 min 0 W/m 41,8 km/h (6 Bft)
29.01.2015 06:46 2,3 C 1,1 C 86 % 992,1 hPa 0,0 l/m 0 min 0 min 0 W/m 37,7 km/h (5 Bft)
29.01.2015 06:48 2,3 C 1,1 C 86 % 992,1 hPa 0,0 l/m 0 min 0 min 0 W/m 33,5 km/h (5 Bft)
29.01.2015 06:50 2,3 C 1,1 C 86 % 992,0 hPa 0,0 l/m 0 min 0 min 0 W/m 29,3 km/h (5 Bft)
29.01.2015 06:52 2,3 C 0,6 C 86 % 992,0 hPa 0,0 l/m 0 min 0 min 0 W/m 33,5 km/h (5 Bft)
29.01.2015 06:54 2,3 C 1,1 C 86 % 991,9 hPa 0,0 l/m 0 min 0 min 0 W/m 33,5 km/h (5 Bft)
29.01.2015 06:56 2,3 C 1,1 C 86 % 992,0 hPa 0,0 l/m 0 min 0 min 0 W/m 37,7 km/h (5 Bft)
29.01.2015 06:58 2,3 C 1,1 C 86 % 991,9 hPa 0,0 l/m 0 min 0 min 0 W/m 39,7 km/h (6 Bft)
29.01.2015 07:00 2,3 C 1,1 C 86 % 992,0 hPa 0,0 l/m 0 min 0 min 0 W/m 50,2 km/h (7 Bft)
29.01.2015 07:02 2,4 C 1,1 C 86 % 991,8 hPa 0,0 l/m 0 min 0 min 0 W/m 37,7 km/h (5 Bft)
29.01.2015 07:04 2,4 C 1,1 C 86 % 991,8 hPa 0,0 l/m 0 min 0 min 0 W/m 46,0 km/h (6 Bft)
29.01.2015 07:06 2,4 C 1,1 C 86 % 991,9 hPa 0,0 l/m 0 min 0 min 0 W/m 35,6 km/h (5 Bft)
29.01.2015 07:08 2,4 C 1,1 C 86 % 991,9 hPa 0,0 l/m 0 min 0 min 0 W/m 33,5 km/h (5 Bft)
29.01.2015 07:10 2,4 C 1,1 C 86 % 991,7 hPa 0,0 l/m 0 min 0 min 0 W/m 27,2 km/h (4 Bft)
29.01.2015 07:12 2,4 C 1,1 C 86 % 991,7 hPa 0,0 l/m 0 min 0 min 0 W/m 29,3 km/h (5 Bft)
29.01.2015 07:14 2,4 C 1,1 C 86 % 991,7 hPa 0,0 l/m 0 min 0 min 0 W/m 37,7 km/h (5 Bft)
29.01.2015 07:16 2,4 C 1,1 C 86 % 991,7 hPa 0,0 l/m 0 min 0 min 0 W/m 39,7 km/h (6 Bft)
29.01.2015 07:18 2,4 C 1,1 C 86 % 991,6 hPa 0,0 l/m 0 min 0 min 0 W/m 35,6 km/h (5 Bft)
29.01.2015 07:20 2,4 C 1,1 C 86 % 991,6 hPa 0,0 l/m 0 min 0 min 0 W/m 35,6 km/h (5 Bft)
29.01.2015 07:22 2,4 C 1,1 C 86 % 991,7 hPa 0,0 l/m 0 min 0 min 0 W/m 35,6 km/h (5 Bft)
29.01.2015 07:24 2,4 C 1,1 C 86 % 991,6 hPa 0,0 l/m 0 min 0 min 0 W/m 31,4 km/h (5 Bft)
29.01.2015 07:26 2,4 C 1,1 C 86 % 991,6 hPa 0,0 l/m 0 min 0 min 0 W/m 27,2 km/h (4 Bft)
29.01.2015 07:28 2,4 C 1,1 C 86 % 991,5 hPa 0,0 l/m 0 min 0 min 0 W/m 35,6 km/h (5 Bft)
29.01.2015 07:30 2,4 C 1,1 C 86 % 991,5 hPa 0,0 l/m 0 min 0 min 0 W/m 37,7 km/h (5 Bft)
29.01.2015 07:32 2,4 C 1,1 C 86 % 991,5 hPa 0,0 l/m 0 min 0 min 0 W/m 39,7 km/h (6 Bft)
29.01.2015 07:34 2,4 C 1,1 C 86 % 991,5 hPa 0,0 l/m 0 min 0 min 0 W/m 31,4 km/h (5 Bft)
29.01.2015 07:36 2,4 C 1,1 C 86 % 991,4 hPa 0,0 l/m 0 min 0 min 0 W/m 37,7 km/h (5 Bft)
29.01.2015 07:38 2,5 C 1,1 C 86 % 991,5 hPa 0,0 l/m 0 min 0 min 0 W/m 46,0 km/h (6 Bft)
29.01.2015 07:40 2,5 C 1,1 C 86 % 991,4 hPa 0,0 l/m 0 min 0 min 0 W/m 23,0 km/h (4 Bft)
29.01.2015 07:42 2,5 C 1,1 C 86 % 991,4 hPa 0,0 l/m 0 min 0 min 0 W/m 33,5 km/h (5 Bft)
29.01.2015 07:44 2,5 C 1,1 C 86 % 991,4 hPa 0,0 l/m 0 min 0 min 0 W/m 48,1 km/h (6 Bft)
29.01.2015 07:46 2,5 C 1,1 C 86 % 991,4 hPa 0,0 l/m 0 min 0 min 0 W/m 37,7 km/h (5 Bft)
29.01.2015 07:48 2,5 C 1,1 C 86 % 991,3 hPa 0,0 l/m 0 min 0 min 0 W/m 46,0 km/h (6 Bft)
29.01.2015 07:50 2,5 C 1,1 C 86 % 991,4 hPa 0,0 l/m 0 min 0 min 0 W/m 41,8 km/h (6 Bft)
29.01.2015 07:52 2,5 C 1,1 C 86 % 991,2 hPa 0,0 l/m 0 min 0 min 0 W/m 27,2 km/h (4 Bft)
29.01.2015 07:54 2,5 C 1,1 C 86 % 991,3 hPa 0,0 l/m 0 min 0 min 0 W/m 33,5 km/h (5 Bft)
29.01.2015 07:56 2,5 C 1,1 C 86 % 991,2 hPa 0,0 l/m 0 min 0 min 0 W/m 43,9 km/h (6 Bft)
29.01.2015 07:58 2,5 C 1,1 C 86 % 991,2 hPa 0,0 l/m 0 min 0 min 0 W/m 52,3 km/h (7 Bft)
29.01.2015 08:00 2,5 C 1,1 C 86 % 991,3 hPa 0,0 l/m 0 min 0 min 0 W/m 37,7 km/h (5 Bft)
29.01.2015 08:02 2,5 C 1,1 C 86 % 991,1 hPa 0,0 l/m 0 min 0 min 0 W/m 37,7 km/h (5 Bft)
29.01.2015 08:04 2,5 C 1,1 C 86 % 991,1 hPa 0,0 l/m 0 min 0 min 0 W/m 35,6 km/h (5 Bft)
29.01.2015 08:06 2,4 C 1,1 C 87 % 991,0 hPa 0,0 l/m 0 min 0 min 0 W/m 43,9 km/h (6 Bft)
29.01.2015 08:08 2,4 C 1,1 C 87 % 991,2 hPa 0,0 l/m 0 min 0 min 0 W/m 41,8 km/h (6 Bft)
29.01.2015 08:10 2,5 C 1,1 C 86 % 991,2 hPa 0,0 l/m 0 min 0 min 0 W/m 31,4 km/h (5 Bft)
29.01.2015 08:12 2,4 C 1,1 C 87 % 991,1 hPa 0,0 l/m 0 min 0 min 0 W/m 41,8 km/h (6 Bft)
29.01.2015 08:14 2,4 C 1,1 C 87 % 991,0 hPa 0,0 l/m 0 min 0 min 2 W/m 33,5 km/h (5 Bft)
29.01.2015 08:16 2,4 C 1,1 C 87 % 991,0 hPa 0,0 l/m 0 min 0 min 5 W/m 33,5 km/h (5 Bft)
29.01.2015 08:18 2,4 C 1,1 C 87 % 990,9 hPa 0,0 l/m 0 min 0 min 5 W/m 27,2 km/h (4 Bft)
29.01.2015 08:20 2,4 C 1,1 C 87 % 990,9 hPa 0,0 l/m 0 min 0 min 6 W/m 35,6 km/h (5 Bft)
29.01.2015 08:22 2,4 C 1,1 C 87 % 990,9 hPa 0,0 l/m 0 min 0 min 7 W/m 29,3 km/h (5 Bft)
29.01.2015 08:24 2,4 C 1,1 C 87 % 990,8 hPa 0,0 l/m 0 min 0 min 7 W/m 31,4 km/h (5 Bft)
29.01.2015 08:26 2,4 C 1,1 C 87 % 990,8 hPa 0,0 l/m 0 min 0 min 7 W/m 31,4 km/h (5 Bft)
29.01.2015 08:28 2,4 C 1,1 C 87 % 990,8 hPa 0,0 l/m 0 min 0 min 9 W/m 31,4 km/h (5 Bft)
29.01.2015 08:30 2,3 C 1,1 C 87 % 990,7 hPa 0,0 l/m 0 min 0 min 9 W/m 37,7 km/h (5 Bft)
29.01.2015 08:32 2,3 C 1,1 C 87 % 990,7 hPa 0,0 l/m 0 min 0 min 9 W/m 43,9 km/h (6 Bft)
29.01.2015 08:34 2,3 C 1,1 C 87 % 990,7 hPa 0,0 l/m 0 min 0 min 11 W/m 35,6 km/h (5 Bft)
29.01.2015 08:36 2,3 C 1,1 C 87 % 990,6 hPa 0,0 l/m 0 min 0 min 12 W/m 43,9 km/h (6 Bft)
29.01.2015 08:38 2,3 C 1,1 C 87 % 990,7 hPa 0,0 l/m 0 min 0 min 14 W/m 39,7 km/h (6 Bft)
29.01.2015 08:40 2,3 C 1,1 C 87 % 990,6 hPa 0,0 l/m 0 min 0 min 17 W/m 29,3 km/h (5 Bft)
29.01.2015 08:42 2,3 C 1,1 C 87 % 990,5 hPa 0,0 l/m 0 min 0 min 22 W/m 43,9 km/h (6 Bft)
29.01.2015 08:44 2,4 C 1,1 C 87 % 990,6 hPa 0,0 l/m 2 min 0 min 26 W/m 41,8 km/h (6 Bft)
29.01.2015 08:46 2,3 C 1,1 C 87 % 990,5 hPa 0,0 l/m 0 min 0 min 26 W/m 39,7 km/h (6 Bft)
29.01.2015 08:48 2,4 C 1,1 C 87 % 990,6 hPa 0,0 l/m 0 min 0 min 24 W/m 41,8 km/h (6 Bft)
29.01.2015 08:50 2,4 C 1,1 C 87 % 990,5 hPa 0,0 l/m 2 min 0 min 36 W/m 46,0 km/h (6 Bft)
29.01.2015 08:52 2,4 C 1,1 C 87 % 990,5 hPa 0,0 l/m 2 min 0 min 45 W/m 43,9 km/h (6 Bft)
29.01.2015 08:54 2,4 C 1,1 C 87 % 990,5 hPa 0,0 l/m 2 min 0 min 40 W/m 31,4 km/h (5 Bft)
29.01.2015 08:56 2,4 C 1,1 C 87 % 990,5 hPa 0,0 l/m 2 min 0 min 47 W/m 35,6 km/h (5 Bft)
29.01.2015 08:58 2,4 C 1,1 C 87 % 990,4 hPa 0,0 l/m 2 min 0 min 61 W/m 25,1 km/h (4 Bft)
29.01.2015 09:00 2,4 C 1,1 C 87 % 990,5 hPa 0,0 l/m 2 min 0 min 44 W/m 35,6 km/h (5 Bft)
29.01.2015 09:02 2,4 C 1,7 C 87 % 990,5 hPa 0,0 l/m 0 min 0 min 45 W/m 43,9 km/h (6 Bft)
29.01.2015 09:04 2,4 C 1,7 C 87 % 990,5 hPa 0,0 l/m 0 min 0 min 43 W/m 31,4 km/h (5 Bft)
29.01.2015 09:06 2,5 C 1,7 C 87 % 990,3 hPa 0,0 l/m 0 min 0 min 35 W/m 29,3 km/h (5 Bft)
29.01.2015 09:08 2,5 C 1,7 C 87 % 990,3 hPa 0,0 l/m 0 min 0 min 32 W/m 46,0 km/h (6 Bft)
29.01.2015 09:10 2,5 C 1,7 C 87 % 990,2 hPa 0,0 l/m 0 min 0 min 25 W/m 43,9 km/h (6 Bft)
29.01.2015 09:12 2,6 C 1,7 C 87 % 990,3 hPa 0,0 l/m 0 min 0 min 19 W/m 43,9 km/h (6 Bft)
29.01.2015 09:14 2,6 C 1,7 C 87 % 990,2 hPa 0,0 l/m 0 min 0 min 12 W/m 48,1 km/h (6 Bft)
29.01.2015 09:16 2,6 C 1,7 C 87 % 990,3 hPa 0,0 l/m 0 min 0 min 14 W/m 31,4 km/h (5 Bft)
29.01.2015 09:18 2,6 C 1,7 C 87 % 990,3 hPa 0,0 l/m 0 min 0 min 20 W/m 35,6 km/h (5 Bft)
29.01.2015 09:20 2,6 C 1,7 C 87 % 990,2 hPa 0,0 l/m 0 min 0 min 26 W/m 43,9 km/h (6 Bft)
29.01.2015 09:22 2,7 C 1,7 C 87 % 990,2 hPa 0,0 l/m 0 min 0 min 31 W/m 35,6 km/h (5 Bft)
29.01.2015 09:24 2,7 C 1,7 C 88 % 990,2 hPa 0,0 l/m 0 min 0 min 37 W/m 41,8 km/h (6 Bft)
29.01.2015 09:26 2,7 C 1,7 C 88 % 990,1 hPa 0,0 l/m 0 min 0 min 25 W/m 27,2 km/h (4 Bft)
29.01.2015 09:28 2,7 C 1,7 C 88 % 990,2 hPa 0,0 l/m 0 min 0 min 39 W/m 37,7 km/h (5 Bft)
29.01.2015 09:30 2,7 C 1,7 C 88 % 990,1 hPa 0,0 l/m 0 min 0 min 46 W/m 25,1 km/h (4 Bft)
29.01.2015 09:32 2,7 C 1,7 C 88 % 990,0 hPa 0,0 l/m 0 min 0 min 29 W/m 43,9 km/h (6 Bft)
29.01.2015 09:34 2,7 C 1,7 C 88 % 989,9 hPa 0,0 l/m 0 min 0 min 26 W/m 43,9 km/h (6 Bft)
29.01.2015 09:36 2,7 C 1,7 C 87 % 990,0 hPa 0,0 l/m 0 min 0 min 32 W/m 37,7 km/h (5 Bft)
29.01.2015 09:38 2,7 C 1,7 C 87 % 989,8 hPa 0,0 l/m 0 min 0 min 37 W/m 31,4 km/h (5 Bft)
29.01.2015 09:40 2,7 C 1,7 C 87 % 989,8 hPa 0,0 l/m 0 min 0 min 40 W/m 31,4 km/h (5 Bft)
29.01.2015 09:42 2,7 C 1,7 C 87 % 989,7 hPa 0,0 l/m 0 min 0 min 42 W/m 31,4 km/h (5 Bft)
29.01.2015 09:44 2,8 C 1,7 C 87 % 989,7 hPa 0,0 l/m 0 min 0 min 66 W/m 23,0 km/h (4 Bft)
29.01.2015 09:46 2,8 C 2,2 C 87 % 989,7 hPa 0,0 l/m 2 min 0 min 130 W/m 33,5 km/h (5 Bft)
29.01.2015 09:48 2,8 C 2,2 C 87 % 989,7 hPa 0,0 l/m 2 min 0 min 109 W/m 35,6 km/h (5 Bft)
29.01.2015 09:50 2,8 C 2,2 C 87 % 989,7 hPa 0,0 l/m 2 min 0 min 114 W/m 31,4 km/h (5 Bft)
29.01.2015 09:52 2,9 C 2,2 C 87 % 989,7 hPa 0,0 l/m 2 min 0 min 96 W/m 33,5 km/h (5 Bft)
29.01.2015 09:54 2,9 C 2,2 C 87 % 989,7 hPa 0,0 l/m 2 min 0 min 133 W/m 31,4 km/h (5 Bft)
29.01.2015 09:56 2,9 C 2,2 C 87 % 989,7 hPa 0,0 l/m 2 min 0 min 205 W/m 31,4 km/h (5 Bft)
29.01.2015 09:58 3,0 C 2,2 C 87 % 989,7 hPa 0,0 l/m 2 min 0 min 176 W/m 33,5 km/h (5 Bft)
29.01.2015 10:00 3,1 C 2,2 C 87 % 989,7 hPa 0,0 l/m 2 min 0 min 107 W/m 33,5 km/h (5 Bft)
29.01.2015 10:02 3,1 C 2,2 C 87 % 989,7 hPa 0,0 l/m 0 min 0 min 59 W/m 29,3 km/h (5 Bft)
29.01.2015 10:04 3,1 C 2,2 C 86 % 989,6 hPa 0,0 l/m 0 min 0 min 44 W/m 25,1 km/h (4 Bft)
29.01.2015 10:06 3,1 C 2,2 C 86 % 989,5 hPa 0,0 l/m 0 min 0 min 49 W/m 33,5 km/h (5 Bft)
29.01.2015 10:08 3,1 C 2,2 C 86 % 989,4 hPa 0,0 l/m 0 min 0 min 37 W/m 33,5 km/h (5 Bft)
29.01.2015 10:10 3,1 C 2,2 C 86 % 989,4 hPa 0,0 l/m 0 min 0 min 41 W/m 37,7 km/h (5 Bft)
29.01.2015 10:12 3,1 C 2,2 C 86 % 989,4 hPa 0,0 l/m 0 min 0 min 53 W/m 39,7 km/h (6 Bft)
29.01.2015 10:14 3,1 C 2,2 C 86 % 989,4 hPa 0,0 l/m 0 min 0 min 47 W/m 35,6 km/h (5 Bft)
29.01.2015 10:16 3,1 C 2,2 C 86 % 989,4 hPa 0,0 l/m 0 min 0 min 42 W/m 27,2 km/h (4 Bft)
29.01.2015 10:18 3,2 C 2,2 C 86 % 989,3 hPa 0,0 l/m 0 min 0 min 42 W/m 29,3 km/h (5 Bft)
29.01.2015 10:20 3,2 C 2,2 C 86 % 989,3 hPa 0,0 l/m 0 min 0 min 54 W/m 35,6 km/h (5 Bft)
29.01.2015 10:22 3,2 C 2,2 C 86 % 989,3 hPa 0,0 l/m 0 min 0 min 69 W/m 31,4 km/h (5 Bft)
29.01.2015 10:24 3,2 C 2,2 C 86 % 989,2 hPa 0,0 l/m 0 min 0 min 102 W/m 31,4 km/h (5 Bft)
29.01.2015 10:26 3,2 C 2,2 C 86 % 989,2 hPa 0,0 l/m 0 min 0 min 114 W/m 43,9 km/h (6 Bft)
29.01.2015 10:28 3,2 C 2,2 C 86 % 989,1 hPa 0,0 l/m 0 min 0 min 116 W/m 39,7 km/h (6 Bft)
29.01.2015 10:30 3,2 C 2,2 C 86 % 989,1 hPa 0,0 l/m 0 min 0 min 106 W/m 33,5 km/h (5 Bft)
29.01.2015 10:32 3,3 C 2,2 C 86 % 989,1 hPa 0,0 l/m 0 min 0 min 89 W/m 29,3 km/h (5 Bft)
29.01.2015 10:34 3,3 C 2,2 C 86 % 989,1 hPa 0,0 l/m 0 min 0 min 87 W/m 27,2 km/h (4 Bft)
29.01.2015 10:36 3,3 C 2,2 C 86 % 989,0 hPa 0,0 l/m 0 min 0 min 97 W/m 29,3 km/h (5 Bft)
29.01.2015 10:38 3,3 C 2,2 C 86 % 989,0 hPa 0,0 l/m 0 min 0 min 84 W/m 39,7 km/h (6 Bft)
29.01.2015 10:40 3,3 C 2,2 C 86 % 988,9 hPa 0,0 l/m 0 min 0 min 82 W/m 37,7 km/h (5 Bft)
29.01.2015 10:42 3,3 C 2,8 C 86 % 988,9 hPa 0,0 l/m 0 min 0 min 119 W/m 35,6 km/h (5 Bft)
29.01.2015 10:44 3,3 C 2,8 C 86 % 988,9 hPa 0,0 l/m 0 min 0 min 105 W/m 27,2 km/h (4 Bft)
29.01.2015 10:46 3,4 C 2,8 C 86 % 988,9 hPa 0,0 l/m 0 min 0 min 113 W/m 31,4 km/h (5 Bft)
29.01.2015 10:48 3,4 C 2,8 C 86 % 988,8 hPa 0,0 l/m 0 min 0 min 117 W/m 35,6 km/h (5 Bft)
29.01.2015 10:50 3,4 C 2,8 C 86 % 988,8 hPa 0,0 l/m 0 min 0 min 115 W/m 23,0 km/h (4 Bft)
29.01.2015 10:52 3,4 C 2,8 C 86 % 988,8 hPa 0,0 l/m 0 min 0 min 112 W/m 27,2 km/h (4 Bft)
29.01.2015 10:54 3,4 C 2,8 C 86 % 988,7 hPa 0,0 l/m 0 min 0 min 101 W/m 27,2 km/h (4 Bft)
29.01.2015 10:56 3,4 C 2,8 C 86 % 988,7 hPa 0,0 l/m 0 min 0 min 127 W/m 29,3 km/h (5 Bft)
29.01.2015 10:58 3,5 C 2,8 C 86 % 988,7 hPa 0,0 l/m 2 min 0 min 160 W/m 27,2 km/h (4 Bft)
29.01.2015 11:00 3,6 C 3,3 C 86 % 988,6 hPa 0,0 l/m 2 min 0 min 203 W/m 25,1 km/h (4 Bft)
29.01.2015 11:02 3,6 C 3,3 C 86 % 988,5 hPa 0,0 l/m 2 min 0 min 186 W/m 33,5 km/h (5 Bft)
29.01.2015 11:04 3,7 C 2,8 C 86 % 988,4 hPa 0,0 l/m 0 min 0 min 118 W/m 31,4 km/h (5 Bft)
29.01.2015 11:06 3,7 C 2,8 C 86 % 988,5 hPa 0,0 l/m 0 min 0 min 106 W/m 37,7 km/h (5 Bft)
29.01.2015 11:08 3,7 C 2,8 C 86 % 988,4 hPa 0,0 l/m 0 min 0 min 109 W/m 35,6 km/h (5 Bft)
29.01.2015 11:10 3,8 C 2,8 C 85 % 988,3 hPa 0,0 l/m 0 min 0 min 123 W/m 33,5 km/h (5 Bft)
29.01.2015 11:12 3,8 C 3,3 C 85 % 988,2 hPa 0,0 l/m 2 min 0 min 173 W/m 39,7 km/h (6 Bft)
29.01.2015 11:14 3,9 C 3,3 C 85 % 988,2 hPa 0,0 l/m 2 min 0 min 174 W/m 31,4 km/h (5 Bft)
29.01.2015 11:16 3,9 C 3,3 C 85 % 988,1 hPa 0,0 l/m 2 min 0 min 186 W/m 37,7 km/h (5 Bft)
29.01.2015 11:18 4,0 C 3,3 C 85 % 988,2 hPa 0,0 l/m 0 min 0 min 136 W/m 29,3 km/h (5 Bft)
29.01.2015 11:20 4,0 C 3,3 C 84 % 988,1 hPa 0,0 l/m 0 min 0 min 126 W/m 41,8 km/h (6 Bft)
29.01.2015 11:22 4,1 C 3,3 C 84 % 988,1 hPa 0,0 l/m 0 min 0 min 150 W/m 31,4 km/h (5 Bft)
29.01.2015 11:24 4,1 C 3,3 C 84 % 988,1 hPa 0,0 l/m 0 min 0 min 153 W/m 41,8 km/h (6 Bft)
29.01.2015 11:26 4,1 C 3,3 C 84 % 988,1 hPa 0,0 l/m 0 min 0 min 150 W/m 43,9 km/h (6 Bft)
29.01.2015 11:28 4,1 C 3,3 C 84 % 987,9 hPa 0,0 l/m 2 min 0 min 164 W/m 35,6 km/h (5 Bft)
29.01.2015 11:30 4,2 C 3,3 C 84 % 987,9 hPa 0,0 l/m 2 min 0 min 176 W/m 37,7 km/h (5 Bft)
29.01.2015 11:32 4,2 C 3,3 C 84 % 987,8 hPa 0,0 l/m 2 min 0 min 197 W/m 29,3 km/h (5 Bft)
29.01.2015 11:34 4,2 C 3,3 C 84 % 987,8 hPa 0,0 l/m 2 min 0 min 167 W/m 50,2 km/h (7 Bft)
29.01.2015 11:36 4,2 C 3,3 C 84 % 987,7 hPa 0,0 l/m 0 min 0 min 158 W/m 37,7 km/h (5 Bft)
29.01.2015 11:38 4,3 C 3,3 C 84 % 987,7 hPa 0,0 l/m 0 min 0 min 163 W/m 37,7 km/h (5 Bft)
29.01.2015 11:40 4,3 C 3,3 C 83 % 987,7 hPa 0,0 l/m 2 min 0 min 178 W/m 41,8 km/h (6 Bft)
29.01.2015 11:42 4,3 C 3,3 C 83 % 987,5 hPa 0,0 l/m 2 min 0 min 182 W/m 25,1 km/h (4 Bft)
29.01.2015 11:44 4,3 C 3,3 C 83 % 987,5 hPa 0,0 l/m 0 min 0 min 165 W/m 37,7 km/h (5 Bft)
29.01.2015 11:46 4,3 C 3,9 C 83 % 987,5 hPa 0,0 l/m 2 min 0 min 215 W/m 29,3 km/h (5 Bft)
29.01.2015 11:48 4,4 C 3,9 C 83 % 987,5 hPa 0,0 l/m 2 min 0 min 376 W/m 35,6 km/h (5 Bft)
29.01.2015 11:50 4,5 C 3,9 C 83 % 987,4 hPa 0,0 l/m 2 min 0 min 416 W/m 29,3 km/h (5 Bft)
29.01.2015 11:52 4,6 C 3,9 C 83 % 987,3 hPa 0,0 l/m 2 min 0 min 219 W/m 29,3 km/h (5 Bft)
29.01.2015 11:54 4,6 C 3,9 C 83 % 987,3 hPa 0,0 l/m 2 min 0 min 437 W/m 39,7 km/h (6 Bft)
29.01.2015 11:56 4,7 C 3,9 C 82 % 987,2 hPa 0,0 l/m 2 min 0 min 408 W/m 27,2 km/h (4 Bft)
29.01.2015 11:58 4,8 C 3,9 C 82 % 987,1 hPa 0,0 l/m 2 min 0 min 402 W/m 31,4 km/h (5 Bft)
29.01.2015 12:00 4,9 C 3,9 C 82 % 987,1 hPa 0,0 l/m 2 min 0 min 316 W/m 37,7 km/h (5 Bft)
29.01.2015 12:02 4,9 C 4,4 C 82 % 987,0 hPa 0,0 l/m 2 min 0 min 444 W/m 23,0 km/h (4 Bft)
29.01.2015 12:06 5,2 C 4,4 C 80 % 986,9 hPa 0,0 l/m 2 min 0 min 369 W/m 39,7 km/h (6 Bft)
29.01.2015 12:08 5,2 C 4,4 C 80 % 986,8 hPa 0,0 l/m 2 min 0 min 288 W/m 39,7 km/h (6 Bft)
29.01.2015 12:10 5,2 C 4,4 C 79 % 986,7 hPa 0,0 l/m 0 min 0 min 167 W/m 35,6 km/h (5 Bft)
29.01.2015 12:12 5,2 C 4,4 C 79 % 986,7 hPa 0,0 l/m 2 min 0 min 213 W/m 35,6 km/h (5 Bft)
29.01.2015 12:14 5,3 C 4,4 C 79 % 986,7 hPa 0,0 l/m 2 min 0 min 200 W/m 37,7 km/h (5 Bft)
29.01.2015 12:16 5,3 C 4,4 C 79 % 986,6 hPa 0,0 l/m 0 min 0 min 158 W/m 29,3 km/h (5 Bft)
29.01.2015 12:18 5,2 C 4,4 C 79 % 986,5 hPa 0,0 l/m 0 min 0 min 161 W/m 43,9 km/h (6 Bft)
29.01.2015 12:20 5,2 C 4,4 C 79 % 986,4 hPa 0,0 l/m 2 min 0 min 180 W/m 29,3 km/h (5 Bft)
29.01.2015 12:22 5,2 C 3,9 C 79 % 986,4 hPa 0,0 l/m 0 min 0 min 109 W/m 29,3 km/h (5 Bft)
29.01.2015 12:24 5,2 C 3,9 C 79 % 986,3 hPa 0,0 l/m 0 min 0 min 65 W/m 35,6 km/h (5 Bft)
29.01.2015 12:26 5,1 C 3,9 C 79 % 986,3 hPa 0,0 l/m 0 min 0 min 71 W/m 31,4 km/h (5 Bft)
29.01.2015 12:28 5,1 C 3,3 C 79 % 986,2 hPa 0,0 l/m 0 min 0 min 74 W/m 37,7 km/h (5 Bft)
29.01.2015 12:30 5,0 C 3,3 C 79 % 986,2 hPa 0,0 l/m 0 min 0 min 88 W/m 35,6 km/h (5 Bft)
29.01.2015 12:32 4,9 C 3,3 C 80 % 986,1 hPa 0,0 l/m 0 min 0 min 96 W/m 43,9 km/h (6 Bft)
29.01.2015 12:34 4,8 C 3,3 C 80 % 986,0 hPa 0,0 l/m 0 min 0 min 84 W/m 35,6 km/h (5 Bft)
29.01.2015 12:36 4,8 C 3,3 C 80 % 986,1 hPa 0,0 l/m 0 min 0 min 71 W/m 33,5 km/h (5 Bft)
29.01.2015 12:38 4,7 C 3,3 C 80 % 986,0 hPa 0,0 l/m 0 min 0 min 54 W/m 39,7 km/h (6 Bft)
29.01.2015 12:40 4,7 C 3,3 C 80 % 985,8 hPa 0,0 l/m 0 min 0 min 61 W/m 41,8 km/h (6 Bft)
29.01.2015 12:42 4,7 C 3,3 C 80 % 985,8 hPa 0,0 l/m 0 min 0 min 72 W/m 33,5 km/h (5 Bft)
29.01.2015 12:44 4,6 C 3,3 C 80 % 985,7 hPa 0,0 l/m 0 min 0 min 76 W/m 31,4 km/h (5 Bft)
29.01.2015 12:46 4,6 C 3,3 C 81 % 985,7 hPa 0,0 l/m 0 min 0 min 65 W/m 41,8 km/h (6 Bft)
29.01.2015 12:48 4,5 C 2,8 C 81 % 985,6 hPa 0,0 l/m 0 min 0 min 65 W/m 31,4 km/h (5 Bft)
29.01.2015 12:50 4,5 C 2,8 C 81 % 985,6 hPa 0,0 l/m 0 min 0 min 57 W/m 29,3 km/h (5 Bft)
29.01.2015 12:52 4,4 C 3,3 C 81 % 985,6 hPa 0,0 l/m 0 min 0 min 64 W/m 29,3 km/h (5 Bft)
29.01.2015 12:54 4,4 C 3,3 C 81 % 985,6 hPa 0,0 l/m 0 min 0 min 93 W/m 31,4 km/h (5 Bft)
29.01.2015 12:56 4,4 C 3,3 C 81 % 985,6 hPa 0,0 l/m 0 min 0 min 98 W/m 31,4 km/h (5 Bft)
29.01.2015 12:58 4,4 C 3,3 C 82 % 985,5 hPa 0,0 l/m 0 min 0 min 68 W/m 31,4 km/h (5 Bft)
29.01.2015 13:00 4,4 C 3,3 C 82 % 985,5 hPa 0,0 l/m 0 min 0 min 48 W/m 27,2 km/h (4 Bft)
29.01.2015 13:02 4,4 C 3,3 C 82 % 985,4 hPa 0,0 l/m 0 min 0 min 55 W/m 25,1 km/h (4 Bft)
29.01.2015 13:04 4,4 C 3,3 C 82 % 985,5 hPa 0,0 l/m 0 min 2 min 106 W/m 41,8 km/h (6 Bft)
29.01.2015 13:06 4,4 C 3,3 C 83 % 985,4 hPa 0,0 l/m 0 min 2 min 162 W/m 31,4 km/h (5 Bft)
29.01.2015 13:08 4,4 C 3,3 C 83 % 985,3 hPa 0,0 l/m 0 min 2 min 154 W/m 35,6 km/h (5 Bft)
29.01.2015 13:10 4,4 C 3,3 C 83 % 985,2 hPa 0,0 l/m 2 min 0 min 221 W/m 41,8 km/h (6 Bft)
29.01.2015 13:12 4,5 C 3,3 C 83 % 985,1 hPa 0,0 l/m 2 min 0 min 393 W/m 29,3 km/h (5 Bft)
29.01.2015 13:14 4,6 C 3,9 C 83 % 985,1 hPa 0,0 l/m 2 min 0 min 366 W/m 29,3 km/h (5 Bft)
29.01.2015 13:16 4,7 C 3,3 C 83 % 984,9 hPa 0,0 l/m 2 min 0 min 288 W/m 37,7 km/h (5 Bft)
29.01.2015 13:18 4,7 C 3,3 C 83 % 984,9 hPa 0,0 l/m 0 min 0 min 151 W/m 33,5 km/h (5 Bft)
29.01.2015 13:20 4,8 C 3,3 C 83 % 984,9 hPa 0,0 l/m 0 min 0 min 157 W/m 39,7 km/h (6 Bft)
29.01.2015 13:22 4,8 C 3,3 C 82 % 984,8 hPa 0,0 l/m 0 min 0 min 55 W/m 37,7 km/h (5 Bft)
29.01.2015 13:24 4,8 C 3,3 C 82 % 984,8 hPa 0,0 l/m 0 min 0 min 46 W/m 31,4 km/h (5 Bft)
29.01.2015 13:26 4,8 C 3,3 C 82 % 984,8 hPa 0,0 l/m 0 min 0 min 42 W/m 20,9 km/h (4 Bft)
29.01.2015 13:28 4,8 C 3,3 C 81 % 984,9 hPa 0,0 l/m 0 min 0 min 34 W/m 41,8 km/h (6 Bft)
29.01.2015 13:30 4,7 C 2,8 C 81 % 984,9 hPa 0,0 l/m 0 min 2 min 23 W/m 33,5 km/h (5 Bft)
29.01.2015 13:32 4,7 C 2,2 C 82 % 985,0 hPa 0,0 l/m 0 min 2 min 27 W/m 33,5 km/h (5 Bft)
29.01.2015 13:34 4,6 C 2,2 C 82 % 984,7 hPa 0,0 l/m 0 min 2 min 86 W/m 37,7 km/h (5 Bft)
29.01.2015 13:36 4,6 C 2,8 C 83 % 984,6 hPa 0,0 l/m 2 min 2 min 252 W/m 25,1 km/h (4 Bft)
29.01.2015 13:38 4,5 C 3,3 C 84 % 984,6 hPa 0,2 l/m 2 min 2 min 438 W/m 27,2 km/h (4 Bft)
29.01.2015 13:40 4,6 C 3,3 C 85 % 984,6 hPa 0,0 l/m 2 min 2 min 418 W/m 25,1 km/h (4 Bft)
29.01.2015 13:42 4,6 C 3,3 C 85 % 984,5 hPa 0,0 l/m 2 min 2 min 282 W/m 27,2 km/h (4 Bft)
29.01.2015 13:44 4,6 C 3,9 C 85 % 984,5 hPa 0,0 l/m 2 min 0 min 289 W/m 37,7 km/h (5 Bft)
29.01.2015 13:46 4,8 C 3,9 C 86 % 984,4 hPa 0,0 l/m 2 min 0 min 473 W/m 27,2 km/h (4 Bft)
29.01.2015 13:48 5,1 C 4,4 C 85 % 984,3 hPa 0,0 l/m 2 min 0 min 442 W/m 33,5 km/h (5 Bft)
29.01.2015 13:50 5,2 C 4,4 C 85 % 984,2 hPa 0,0 l/m 2 min 0 min 392 W/m 37,7 km/h (5 Bft)
29.01.2015 13:52 5,3 C 4,4 C 84 % 984,2 hPa 0,0 l/m 2 min 0 min 366 W/m 43,9 km/h (6 Bft)
29.01.2015 13:54 5,2 C 3,9 C 83 % 984,3 hPa 0,0 l/m 2 min 0 min 314 W/m 37,7 km/h (5 Bft)
29.01.2015 13:56 5,1 C 3,3 C 82 % 984,0 hPa 0,0 l/m 0 min 0 min 150 W/m 37,7 km/h (5 Bft)
29.01.2015 13:58 4,9 C 3,3 C 82 % 983,9 hPa 0,0 l/m 0 min 0 min 50 W/m 18,8 km/h (3 Bft)
29.01.2015 14:00 4,8 C 3,3 C 83 % 983,9 hPa 0,0 l/m 0 min 0 min 48 W/m 20,9 km/h (4 Bft)
29.01.2015 14:02 4,7 C 2,8 C 83 % 983,8 hPa 0,0 l/m 0 min 0 min 79 W/m 25,1 km/h (4 Bft)
29.01.2015 14:04 4,6 C 2,8 C 84 % 983,8 hPa 0,0 l/m 0 min 0 min 57 W/m 23,0 km/h (4 Bft)
29.01.2015 14:06 4,4 C 2,8 C 84 % 983,7 hPa 0,0 l/m 0 min 0 min 61 W/m 16,7 km/h (3 Bft)
29.01.2015 14:08 4,4 C 2,8 C 84 % 983,6 hPa 0,0 l/m 0 min 0 min 69 W/m 23,0 km/h (4 Bft)
29.01.2015 14:10 4,3 C 3,3 C 85 % 983,7 hPa 0,0 l/m 0 min 0 min 81 W/m 29,3 km/h (5 Bft)
29.01.2015 14:12 4,3 C 3,3 C 85 % 983,7 hPa 0,0 l/m 0 min 0 min 72 W/m 20,9 km/h (4 Bft)
29.01.2015 14:14 4,2 C 2,8 C 85 % 983,5 hPa 0,0 l/m 0 min 2 min 79 W/m 23,0 km/h (4 Bft)
29.01.2015 14:16 4,2 C 3,3 C 86 % 983,5 hPa 0,0 l/m 2 min 2 min 188 W/m 20,9 km/h (4 Bft)
29.01.2015 14:18 4,3 C 3,9 C 86 % 983,5 hPa 0,0 l/m 2 min 0 min 254 W/m 35,6 km/h (5 Bft)
29.01.2015 14:20 4,3 C 3,9 C 86 % 983,3 hPa 0,0 l/m 2 min 0 min 315 W/m 23,0 km/h (4 Bft)
29.01.2015 14:22 4,4 C 3,9 C 87 % 983,2 hPa 0,0 l/m 2 min 0 min 386 W/m 27,2 km/h (4 Bft)
29.01.2015 14:24 4,5 C 3,9 C 86 % 983,1 hPa 0,0 l/m 2 min 0 min 357 W/m 29,3 km/h (5 Bft)
29.01.2015 14:26 4,7 C 3,9 C 86 % 983,0 hPa 0,0 l/m 2 min 0 min 325 W/m 25,1 km/h (4 Bft)
29.01.2015 14:28 4,7 C 3,9 C 86 % 982,9 hPa 0,0 l/m 2 min 0 min 287 W/m 31,4 km/h (5 Bft)
29.01.2015 14:30 4,8 C 3,9 C 85 % 983,0 hPa 0,0 l/m 2 min 0 min 269 W/m 27,2 km/h (4 Bft)
29.01.2015 14:32 4,8 C 3,9 C 85 % 982,9 hPa 0,0 l/m 2 min 0 min 262 W/m 29,3 km/h (5 Bft)
29.01.2015 14:34 4,8 C 3,9 C 85 % 982,9 hPa 0,0 l/m 2 min 0 min 207 W/m 37,7 km/h (5 Bft)
29.01.2015 14:36 4,8 C 3,3 C 84 % 982,9 hPa 0,0 l/m 0 min 0 min 61 W/m 37,7 km/h (5 Bft)
29.01.2015 14:38 4,7 C 3,3 C 84 % 982,8 hPa 0,0 l/m 0 min 0 min 58 W/m 31,4 km/h (5 Bft)
29.01.2015 14:40 4,6 C 3,3 C 84 % 982,7 hPa 0,0 l/m 0 min 0 min 70 W/m 29,3 km/h (5 Bft)
29.01.2015 14:42 4,6 C 3,3 C 84 % 982,8 hPa 0,0 l/m 0 min 0 min 58 W/m 33,5 km/h (5 Bft)
29.01.2015 14:44 4,6 C 3,3 C 85 % 982,7 hPa 0,0 l/m 0 min 2 min 51 W/m 35,6 km/h (5 Bft)
29.01.2015 14:46 4,5 C 3,3 C 85 % 982,6 hPa 0,0 l/m 0 min 2 min 103 W/m 23,0 km/h (4 Bft)
29.01.2015 14:48 4,5 C 3,3 C 86 % 982,6 hPa 0,0 l/m 2 min 2 min 217 W/m 35,6 km/h (5 Bft)
29.01.2015 14:50 4,6 C 3,9 C 86 % 982,5 hPa 0,0 l/m 2 min 0 min 220 W/m 33,5 km/h (5 Bft)
29.01.2015 14:52 4,6 C 3,3 C 86 % 982,5 hPa 0,0 l/m 2 min 0 min 140 W/m 29,3 km/h (5 Bft)
29.01.2015 14:54 4,6 C 3,3 C 85 % 982,4 hPa 0,0 l/m 0 min 0 min 78 W/m 27,2 km/h (4 Bft)
29.01.2015 14:56 4,6 C 3,3 C 85 % 982,3 hPa 0,0 l/m 0 min 0 min 49 W/m 25,1 km/h (4 Bft)
29.01.2015 14:58 4,5 C 3,3 C 85 % 982,2 hPa 0,0 l/m 0 min 0 min 44 W/m 18,8 km/h (3 Bft)
29.01.2015 15:00 4,5 C 3,3 C 85 % 982,3 hPa 0,0 l/m 0 min 2 min 54 W/m 35,6 km/h (5 Bft)
29.01.2015 15:02 4,5 C 3,3 C 85 % 982,2 hPa 0,0 l/m 0 min 0 min 71 W/m 29,3 km/h (5 Bft)
29.01.2015 15:04 4,4 C 3,3 C 85 % 982,2 hPa 0,0 l/m 0 min 0 min 69 W/m 35,6 km/h (5 Bft)
29.01.2015 15:06 4,4 C 3,3 C 85 % 982,0 hPa 0,0 l/m 0 min 0 min 72 W/m 33,5 km/h (5 Bft)
29.01.2015 15:08 4,5 C 3,3 C 85 % 982,0 hPa 0,0 l/m 0 min 0 min 71 W/m 27,2 km/h (4 Bft)
29.01.2015 15:10 4,5 C 3,3 C 85 % 982,0 hPa 0,0 l/m 0 min 0 min 61 W/m 27,2 km/h (4 Bft)
29.01.2015 15:12 4,5 C 3,3 C 85 % 981,9 hPa 0,0 l/m 0 min 0 min 53 W/m 23,0 km/h (4 Bft)
29.01.2015 15:14 4,5 C 3,3 C 84 % 981,8 hPa 0,0 l/m 0 min 0 min 60 W/m 25,1 km/h (4 Bft)
29.01.2015 15:16 4,6 C 3,3 C 84 % 981,7 hPa 0,0 l/m 0 min 0 min 79 W/m 35,6 km/h (5 Bft)
29.01.2015 15:18 4,6 C 3,3 C 84 % 981,7 hPa 0,0 l/m 0 min 0 min 99 W/m 31,4 km/h (5 Bft)
29.01.2015 15:20 4,7 C 3,9 C 84 % 981,7 hPa 0,0 l/m 2 min 0 min 148 W/m 43,9 km/h (6 Bft)
29.01.2015 15:22 4,9 C 3,9 C 84 % 981,6 hPa 0,0 l/m 2 min 0 min 126 W/m 23,0 km/h (4 Bft)
29.01.2015 15:24 4,9 C 3,9 C 83 % 981,6 hPa 0,0 l/m 2 min 0 min 155 W/m 25,1 km/h (4 Bft)
29.01.2015 15:26 5,0 C 3,9 C 83 % 981,4 hPa 0,0 l/m 2 min 0 min 141 W/m 25,1 km/h (4 Bft)
29.01.2015 15:28 5,0 C 3,9 C 83 % 981,4 hPa 0,0 l/m 2 min 0 min 126 W/m 29,3 km/h (5 Bft)
29.01.2015 15:30 5,0 C 3,9 C 82 % 981,4 hPa 0,0 l/m 0 min 0 min 106 W/m 41,8 km/h (6 Bft)
29.01.2015 15:32 5,0 C 3,9 C 82 % 981,4 hPa 0,0 l/m 0 min 0 min 98 W/m 37,7 km/h (5 Bft)
29.01.2015 15:34 5,0 C 3,9 C 82 % 981,3 hPa 0,0 l/m 2 min 0 min 135 W/m 27,2 km/h (4 Bft)
29.01.2015 15:36 5,0 C 3,9 C 82 % 981,2 hPa 0,0 l/m 2 min 0 min 164 W/m 33,5 km/h (5 Bft)
29.01.2015 15:38 5,0 C 3,9 C 82 % 981,1 hPa 0,0 l/m 2 min 0 min 121 W/m 25,1 km/h (4 Bft)
29.01.2015 15:40 5,0 C 3,9 C 82 % 981,1 hPa 0,0 l/m 2 min 0 min 101 W/m 33,5 km/h (5 Bft)
29.01.2015 15:42 5,0 C 3,9 C 82 % 981,0 hPa 0,0 l/m 0 min 0 min 73 W/m 23,0 km/h (4 Bft)
29.01.2015 15:44 5,0 C 3,9 C 82 % 981,0 hPa 0,0 l/m 0 min 0 min 69 W/m 31,4 km/h (5 Bft)
29.01.2015 15:46 4,9 C 3,9 C 82 % 980,8 hPa 0,0 l/m 0 min 0 min 62 W/m 29,3 km/h (5 Bft)
29.01.2015 15:48 4,9 C 3,9 C 82 % 980,8 hPa 0,0 l/m 0 min 0 min 60 W/m 23,0 km/h (4 Bft)
29.01.2015 15:50 4,9 C 3,3 C 82 % 980,8 hPa 0,0 l/m 0 min 0 min 53 W/m 29,3 km/h (5 Bft)
29.01.2015 15:52 4,8 C 3,3 C 82 % 980,8 hPa 0,0 l/m 0 min 0 min 47 W/m 27,2 km/h (4 Bft)
29.01.2015 15:54 4,8 C 3,3 C 82 % 980,6 hPa 0,0 l/m 0 min 0 min 47 W/m 23,0 km/h (4 Bft)
29.01.2015 15:56 4,8 C 3,3 C 82 % 980,5 hPa 0,0 l/m 0 min 0 min 38 W/m 29,3 km/h (5 Bft)
29.01.2015 15:58 4,8 C 3,3 C 82 % 980,5 hPa 0,0 l/m 0 min 0 min 32 W/m 25,1 km/h (4 Bft)
29.01.2015 16:00 4,8 C 3,3 C 82 % 980,4 hPa 0,0 l/m 0 min 0 min 28 W/m 20,9 km/h (4 Bft)
29.01.2015 16:02 4,8 C 3,3 C 82 % 980,4 hPa 0,0 l/m 0 min 0 min 28 W/m 14,6 km/h (3 Bft)
29.01.2015 16:04 4,8 C 3,3 C 82 % 980,4 hPa 0,0 l/m 0 min 2 min 38 W/m 14,6 km/h (3 Bft)
29.01.2015 16:06 4,8 C 3,3 C 82 % 980,3 hPa 0,0 l/m 0 min 2 min 33 W/m 20,9 km/h (4 Bft)
29.01.2015 16:08 4,8 C 3,3 C 83 % 980,3 hPa 0,0 l/m 0 min 2 min 28 W/m 23,0 km/h (4 Bft)
29.01.2015 16:10 4,8 C 2,8 C 83 % 980,2 hPa 0,0 l/m 0 min 2 min 43 W/m 20,9 km/h (4 Bft)
29.01.2015 16:12 4,8 C 3,3 C 83 % 980,2 hPa 0,0 l/m 0 min 0 min 65 W/m 31,4 km/h (5 Bft)
29.01.2015 16:14 4,7 C 3,3 C 84 % 980,1 hPa 0,0 l/m 0 min 0 min 54 W/m 25,1 km/h (4 Bft)
29.01.2015 16:16 4,7 C 3,3 C 84 % 980,1 hPa 0,0 l/m 0 min 0 min 40 W/m 18,8 km/h (3 Bft)
29.01.2015 16:18 4,7 C 3,3 C 84 % 980,1 hPa 0,0 l/m 0 min 0 min 46 W/m 14,6 km/h (3 Bft)
29.01.2015 16:20 4,7 C 3,3 C 84 % 980,0 hPa 0,0 l/m 0 min 0 min 40 W/m 18,8 km/h (3 Bft)
29.01.2015 16:22 4,7 C 3,3 C 84 % 979,9 hPa 0,0 l/m 0 min 0 min 33 W/m 16,7 km/h (3 Bft)
29.01.2015 16:24 4,7 C 2,8 C 84 % 979,9 hPa 0,0 l/m 0 min 0 min 34 W/m 27,2 km/h (4 Bft)
29.01.2015 16:26 4,7 C 2,8 C 84 % 979,7 hPa 0,0 l/m 0 min 0 min 25 W/m 18,8 km/h (3 Bft)
29.01.2015 16:28 4,6 C 2,8 C 84 % 979,7 hPa 0,0 l/m 0 min 0 min 24 W/m 27,2 km/h (4 Bft)
29.01.2015 16:30 4,6 C 2,8 C 84 % 979,7 hPa 0,0 l/m 0 min 0 min 29 W/m 27,2 km/h (4 Bft)
29.01.2015 16:32 4,6 C 2,8 C 84 % 979,6 hPa 0,0 l/m 0 min 0 min 25 W/m 20,9 km/h (4 Bft)
29.01.2015 16:34 4,5 C 2,8 C 84 % 979,5 hPa 0,0 l/m 0 min 0 min 24 W/m 18,8 km/h (3 Bft)
29.01.2015 16:36 4,5 C 2,8 C 84 % 979,4 hPa 0,0 l/m 0 min 0 min 18 W/m 14,6 km/h (3 Bft)
29.01.2015 16:38 4,5 C 2,8 C 84 % 979,4 hPa 0,0 l/m 0 min 0 min 14 W/m 14,6 km/h (3 Bft)
29.01.2015 16:40 4,4 C 2,8 C 85 % 979,3 hPa 0,0 l/m 0 min 0 min 14 W/m 27,2 km/h (4 Bft)
29.01.2015 16:42 4,4 C 2,8 C 85 % 979,3 hPa 0,0 l/m 0 min 0 min 12 W/m 23,0 km/h (4 Bft)
29.01.2015 16:44 4,4 C 2,8 C 85 % 979,3 hPa 0,0 l/m 0 min 0 min 11 W/m 20,9 km/h (4 Bft)
29.01.2015 16:46 4,4 C 2,8 C 85 % 979,2 hPa 0,0 l/m 0 min 0 min 11 W/m 16,7 km/h (3 Bft)
29.01.2015 16:48 4,4 C 2,8 C 85 % 979,1 hPa 0,0 l/m 0 min 0 min 8 W/m 27,2 km/h (4 Bft)
29.01.2015 16:50 4,4 C 2,8 C 85 % 979,0 hPa 0,0 l/m 0 min 0 min 6 W/m 25,1 km/h (4 Bft)
29.01.2015 16:52 4,4 C 2,8 C 85 % 979,0 hPa 0,0 l/m 0 min 0 min 5 W/m 25,1 km/h (4 Bft)
29.01.2015 16:54 4,3 C 2,8 C 85 % 978,9 hPa 0,0 l/m 0 min 0 min 6 W/m 25,1 km/h (4 Bft)
29.01.2015 16:56 4,3 C 2,8 C 85 % 978,9 hPa 0,0 l/m 0 min 0 min 7 W/m 29,3 km/h (5 Bft)
29.01.2015 16:58 4,3 C 2,8 C 85 % 978,8 hPa 0,0 l/m 0 min 0 min 5 W/m 23,0 km/h (4 Bft)
29.01.2015 17:00 4,3 C 2,8 C 85 % 978,8 hPa 0,0 l/m 0 min 0 min 3 W/m 33,5 km/h (5 Bft)
29.01.2015 17:02 4,2 C 2,8 C 85 % 978,7 hPa 0,0 l/m 0 min 0 min 5 W/m 27,2 km/h (4 Bft)
29.01.2015 17:04 4,2 C 2,8 C 85 % 978,7 hPa 0,0 l/m 0 min 0 min 5 W/m 23,0 km/h (4 Bft)
29.01.2015 17:06 4,2 C 2,8 C 85 % 978,7 hPa 0,0 l/m 0 min 0 min 5 W/m 20,9 km/h (4 Bft)
29.01.2015 17:08 4,2 C 2,8 C 85 % 978,6 hPa 0,0 l/m 0 min 0 min 5 W/m 20,9 km/h (4 Bft)
29.01.2015 17:10 4,2 C 2,8 C 85 % 978,6 hPa 0,0 l/m 0 min 0 min 5 W/m 16,7 km/h (3 Bft)
29.01.2015 17:12 4,2 C 2,8 C 85 % 978,6 hPa 0,0 l/m 0 min 0 min 3 W/m 25,1 km/h (4 Bft)
29.01.2015 17:14 4,1 C 2,8 C 85 % 978,6 hPa 0,0 l/m 0 min 0 min 0 W/m 35,6 km/h (5 Bft)
29.01.2015 17:16 4,1 C 2,8 C 85 % 978,5 hPa 0,0 l/m 0 min 0 min 0 W/m 23,0 km/h (4 Bft)
29.01.2015 17:18 4,1 C 2,8 C 85 % 978,6 hPa 0,0 l/m 0 min 0 min 0 W/m 31,4 km/h (5 Bft)
29.01.2015 17:20 4,1 C 2,8 C 85 % 978,5 hPa 0,0 l/m 0 min 0 min 0 W/m 20,9 km/h (4 Bft)
29.01.2015 17:22 4,0 C 2,8 C 85 % 978,4 hPa 0,0 l/m 0 min 0 min 0 W/m 23,0 km/h (4 Bft)
29.01.2015 17:24 4,0 C 2,8 C 85 % 978,5 hPa 0,0 l/m 0 min 0 min 0 W/m 18,8 km/h (3 Bft)
29.01.2015 17:26 4,0 C 2,8 C 86 % 978,4 hPa 0,0 l/m 0 min 0 min 0 W/m 16,7 km/h (3 Bft)
29.01.2015 17:28 3,9 C 2,8 C 85 % 978,4 hPa 0,0 l/m 0 min 0 min 0 W/m 23,0 km/h (4 Bft)
29.01.2015 17:30 3,9 C 2,8 C 86 % 978,3 hPa 0,0 l/m 0 min 0 min 0 W/m 27,2 km/h (4 Bft)
29.01.2015 17:32 3,9 C 2,8 C 86 % 978,3 hPa 0,0 l/m 0 min 0 min 0 W/m 23,0 km/h (4 Bft)
29.01.2015 17:34 3,9 C 2,8 C 86 % 978,1 hPa 0,0 l/m 0 min 0 min 0 W/m 23,0 km/h (4 Bft)
29.01.2015 17:36 3,9 C 2,8 C 86 % 978,2 hPa 0,0 l/m 0 min 0 min 0 W/m 20,9 km/h (4 Bft)
29.01.2015 17:38 3,9 C 2,8 C 86 % 978,2 hPa 0,0 l/m 0 min 0 min 0 W/m 23,0 km/h (4 Bft)
29.01.2015 17:40 3,9 C 2,8 C 86 % 978,1 hPa 0,0 l/m 0 min 0 min 0 W/m 23,0 km/h (4 Bft)
29.01.2015 17:42 3,9 C 2,8 C 86 % 978,1 hPa 0,0 l/m 0 min 0 min 0 W/m 27,2 km/h (4 Bft)
29.01.2015 17:44 3,8 C 2,8 C 86 % 977,9 hPa 0,0 l/m 0 min 0 min 0 W/m 35,6 km/h (5 Bft)
29.01.2015 17:46 3,8 C 2,8 C 86 % 978,1 hPa 0,0 l/m 0 min 0 min 0 W/m 31,4 km/h (5 Bft)
29.01.2015 17:48 3,8 C 2,8 C 86 % 978,0 hPa 0,0 l/m 0 min 0 min 0 W/m 27,2 km/h (4 Bft)
29.01.2015 17:50 3,8 C 2,8 C 86 % 978,0 hPa 0,0 l/m 0 min 0 min 0 W/m 25,1 km/h (4 Bft)
29.01.2015 17:52 3,8 C 2,8 C 87 % 977,9 hPa 0,0 l/m 0 min 0 min 0 W/m 23,0 km/h (4 Bft)
29.01.2015 17:54 3,8 C 2,2 C 87 % 977,8 hPa 0,0 l/m 0 min 0 min 0 W/m 27,2 km/h (4 Bft)
29.01.2015 17:56 3,8 C 2,2 C 87 % 977,8 hPa 0,0 l/m 0 min 0 min 0 W/m 20,9 km/h (4 Bft)
29.01.2015 17:58 3,8 C 2,2 C 87 % 977,8 hPa 0,0 l/m 0 min 0 min 0 W/m 18,8 km/h (3 Bft)
29.01.2015 18:00 3,8 C 2,2 C 87 % 977,6 hPa 0,0 l/m 0 min 0 min 0 W/m 31,4 km/h (5 Bft)
29.01.2015 18:02 3,8 C 2,2 C 87 % 977,6 hPa 0,0 l/m 0 min 0 min 0 W/m 23,0 km/h (4 Bft)
29.01.2015 18:06 3,7 C 2,2 C 87 % 977,5 hPa 0,0 l/m 0 min 0 min 0 W/m 20,9 km/h (4 Bft)
29.01.2015 18:08 3,7 C 2,2 C 87 % 977,5 hPa 0,0 l/m 0 min 0 min 0 W/m 29,3 km/h (5 Bft)
29.01.2015 18:10 3,7 C 2,2 C 87 % 977,4 hPa 0,0 l/m 0 min 0 min 0 W/m 18,8 km/h (3 Bft)
29.01.2015 18:12 3,7 C 2,2 C 87 % 977,3 hPa 0,0 l/m 0 min 0 min 0 W/m 29,3 km/h (5 Bft)
29.01.2015 18:14 3,7 C 2,2 C 87 % 977,2 hPa 0,0 l/m 0 min 0 min 0 W/m 18,8 km/h (3 Bft)
29.01.2015 18:16 3,7 C 2,2 C 87 % 977,3 hPa 0,0 l/m 0 min 0 min 0 W/m 18,8 km/h (3 Bft)
29.01.2015 18:18 3,6 C 2,2 C 87 % 977,2 hPa 0,0 l/m 0 min 0 min 0 W/m 23,0 km/h (4 Bft)
29.01.2015 18:20 3,6 C 2,2 C 87 % 977,1 hPa 0,0 l/m 0 min 0 min 0 W/m 14,6 km/h (3 Bft)
29.01.2015 18:22 3,6 C 2,2 C 87 % 977,1 hPa 0,0 l/m 0 min 0 min 0 W/m 18,8 km/h (3 Bft)
29.01.2015 18:24 3,6 C 2,2 C 87 % 977,1 hPa 0,0 l/m 0 min 0 min 0 W/m 20,9 km/h (4 Bft)
29.01.2015 18:26 3,6 C 2,2 C 87 % 977,0 hPa 0,0 l/m 0 min 0 min 0 W/m 23,0 km/h (4 Bft)
29.01.2015 18:28 3,6 C 2,2 C 87 % 977,1 hPa 0,0 l/m 0 min 0 min 0 W/m 18,8 km/h (3 Bft)
29.01.2015 18:30 3,6 C 2,2 C 87 % 977,1 hPa 0,0 l/m 0 min 0 min 0 W/m 23,0 km/h (4 Bft)
29.01.2015 18:32 3,6 C 2,2 C 87 % 977,1 hPa 0,0 l/m 0 min 0 min 0 W/m 18,8 km/h (3 Bft)
29.01.2015 18:34 3,6 C 2,2 C 87 % 977,0 hPa 0,0 l/m 0 min 0 min 0 W/m 16,7 km/h (3 Bft)
29.01.2015 18:36 3,5 C 2,2 C 87 % 977,0 hPa 0,0 l/m 0 min 0 min 0 W/m 18,8 km/h (3 Bft)
29.01.2015 18:38 3,5 C 2,2 C 87 % 977,0 hPa 0,0 l/m 0 min 0 min 0 W/m 12,6 km/h (3 Bft)
29.01.2015 18:40 3,5 C 2,2 C 87 % 976,9 hPa 0,0 l/m 0 min 0 min 0 W/m 18,8 km/h (3 Bft)
29.01.2015 18:42 3,5 C 2,2 C 87 % 976,9 hPa 0,0 l/m 0 min 0 min 0 W/m 16,7 km/h (3 Bft)
29.01.2015 18:44 3,5 C 2,2 C 87 % 976,9 hPa 0,0 l/m 0 min 0 min 0 W/m 16,7 km/h (3 Bft)
29.01.2015 18:46 3,5 C 2,2 C 88 % 976,9 hPa 0,0 l/m 0 min 0 min 0 W/m 18,8 km/h (3 Bft)
29.01.2015 18:48 3,5 C 2,2 C 88 % 976,9 hPa 0,0 l/m 0 min 0 min 0 W/m 23,0 km/h (4 Bft)
29.01.2015 18:50 3,5 C 2,2 C 88 % 976,8 hPa 0,0 l/m 0 min 0 min 0 W/m 14,6 km/h (3 Bft)
29.01.2015 18:52 3,5 C 2,2 C 88 % 976,7 hPa 0,0 l/m 0 min 0 min 0 W/m 12,6 km/h (3 Bft)
29.01.2015 18:54 3,5 C 2,2 C 88 % 976,7 hPa 0,0 l/m 0 min 0 min 0 W/m 14,6 km/h (3 Bft)
29.01.2015 18:56 3,5 C 2,2 C 88 % 976,6 hPa 0,0 l/m 0 min 0 min 0 W/m 14,6 km/h (3 Bft)
29.01.2015 18:58 3,5 C 2,2 C 88 % 976,5 hPa 0,0 l/m 0 min 0 min 0 W/m 14,6 km/h (3 Bft)
29.01.2015 19:00 3,5 C 2,2 C 88 % 976,4 hPa 0,0 l/m 0 min 0 min 0 W/m 18,8 km/h (3 Bft)
29.01.2015 19:02 3,4 C 2,2 C 88 % 976,4 hPa 0,0 l/m 0 min 0 min 0 W/m 14,6 km/h (3 Bft)
29.01.2015 19:04 3,4 C 2,2 C 88 % 976,3 hPa 0,0 l/m 0 min 0 min 0 W/m 20,9 km/h (4 Bft)
29.01.2015 19:06 3,4 C 2,2 C 88 % 976,2 hPa 0,0 l/m 0 min 0 min 0 W/m 14,6 km/h (3 Bft)
29.01.2015 19:08 3,4 C 2,2 C 88 % 976,1 hPa 0,0 l/m 0 min 0 min 0 W/m 12,6 km/h (3 Bft)
29.01.2015 19:10 3,4 C 2,2 C 88 % 976,2 hPa 0,0 l/m 0 min 0 min 0 W/m 16,7 km/h (3 Bft)
29.01.2015 19:12 3,4 C 2,2 C 88 % 976,2 hPa 0,0 l/m 0 min 0 min 0 W/m 10,5 km/h (2 Bft)
29.01.2015 19:14 3,4 C 2,2 C 88 % 976,2 hPa 0,0 l/m 0 min 0 min 0 W/m 20,9 km/h (4 Bft)
29.01.2015 19:16 3,4 C 2,2 C 88 % 976,1 hPa 0,0 l/m 0 min 0 min 0 W/m 16,7 km/h (3 Bft)
29.01.2015 19:18 3,4 C 2,2 C 88 % 976,0 hPa 0,0 l/m 0 min 0 min 0 W/m 14,6 km/h (3 Bft)
29.01.2015 19:20 3,4 C 2,2 C 88 % 975,9 hPa 0,0 l/m 0 min 0 min 0 W/m 16,7 km/h (3 Bft)
29.01.2015 19:22 3,4 C 2,2 C 88 % 975,9 hPa 0,0 l/m 0 min 0 min 0 W/m 12,6 km/h (3 Bft)
29.01.2015 19:24 3,4 C 2,2 C 88 % 975,8 hPa 0,0 l/m 0 min 0 min 0 W/m 10,5 km/h (2 Bft)
29.01.2015 19:26 3,4 C 2,2 C 88 % 975,7 hPa 0,0 l/m 0 min 0 min 0 W/m 10,5 km/h (2 Bft)
29.01.2015 19:28 3,4 C 2,2 C 88 % 975,6 hPa 0,0 l/m 0 min 0 min 0 W/m 12,6 km/h (3 Bft)
29.01.2015 19:30 3,4 C 2,2 C 88 % 975,5 hPa 0,0 l/m 0 min 0 min 0 W/m 8,4 km/h (2 Bft)
29.01.2015 19:32 3,4 C 2,2 C 88 % 975,4 hPa 0,0 l/m 0 min 0 min 0 W/m 14,6 km/h (3 Bft)
29.01.2015 19:34 3,4 C 2,2 C 88 % 975,3 hPa 0,0 l/m 0 min 0 min 0 W/m 8,4 km/h (2 Bft)
29.01.2015 19:36 3,4 C 2,2 C 88 % 975,3 hPa 0,0 l/m 0 min 0 min 0 W/m 12,6 km/h (3 Bft)
29.01.2015 19:38 3,4 C 2,2 C 89 % 975,3 hPa 0,0 l/m 0 min 0 min 0 W/m 12,6 km/h (3 Bft)
29.01.2015 19:40 3,4 C 2,2 C 89 % 975,3 hPa 0,0 l/m 0 min 0 min 0 W/m 18,8 km/h (3 Bft)
29.01.2015 19:42 3,4 C 2,2 C 89 % 975,3 hPa 0,0 l/m 0 min 0 min 0 W/m 12,6 km/h (3 Bft)
29.01.2015 19:44 3,4 C 2,2 C 89 % 975,3 hPa 0,0 l/m 0 min 0 min 0 W/m 14,6 km/h (3 Bft)
29.01.2015 19:46 3,4 C 2,2 C 89 % 975,2 hPa 0,0 l/m 0 min 0 min 0 W/m 14,6 km/h (3 Bft)
29.01.2015 19:48 3,3 C 2,2 C 89 % 975,2 hPa 0,0 l/m 0 min 0 min 0 W/m 10,5 km/h (2 Bft)
29.01.2015 19:50 3,3 C 2,2 C 88 % 975,1 hPa 0,0 l/m 0 min 0 min 0 W/m 14,6 km/h (3 Bft)
29.01.2015 19:52 3,3 C 2,2 C 89 % 975,1 hPa 0,0 l/m 0 min 0 min 0 W/m 14,6 km/h (3 Bft)
29.01.2015 19:54 3,4 C 2,2 C 89 % 975,2 hPa 0,0 l/m 0 min 0 min 0 W/m 18,8 km/h (3 Bft)
29.01.2015 19:56 3,4 C 2,2 C 89 % 975,1 hPa 0,0 l/m 0 min 0 min 0 W/m 18,8 km/h (3 Bft)
29.01.2015 19:58 3,4 C 2,2 C 89 % 975,0 hPa 0,0 l/m 0 min 0 min 0 W/m 14,6 km/h (3 Bft)
29.01.2015 20:00 3,4 C 2,2 C 89 % 975,1 hPa 0,0 l/m 0 min 0 min 0 W/m 10,5 km/h (2 Bft)
29.01.2015 20:02 3,4 C 2,2 C 89 % 975,0 hPa 0,0 l/m 0 min 0 min 0 W/m 14,6 km/h (3 Bft)
29.01.2015 20:04 3,4 C 2,2 C 89 % 974,9 hPa 0,0 l/m 0 min 0 min 0 W/m 20,9 km/h (4 Bft)
29.01.2015 20:06 3,4 C 2,2 C 89 % 975,0 hPa 0,0 l/m 0 min 0 min 0 W/m 12,6 km/h (3 Bft)
29.01.2015 20:08 3,4 C 2,2 C 89 % 974,9 hPa 0,0 l/m 0 min 0 min 0 W/m 6,3 km/h (2 Bft)
29.01.2015 20:10 3,4 C 2,2 C 89 % 974,9 hPa 0,0 l/m 0 min 0 min 0 W/m 6,3 km/h (2 Bft)
29.01.2015 20:12 3,4 C 2,2 C 89 % 974,8 hPa 0,0 l/m 0 min 0 min 0 W/m 6,3 km/h (2 Bft)
29.01.2015 20:14 3,4 C 2,2 C 89 % 974,8 hPa 0,0 l/m 0 min 0 min 0 W/m 10,5 km/h (2 Bft)
29.01.2015 20:16 3,4 C 2,2 C 89 % 974,8 hPa 0,0 l/m 0 min 0 min 0 W/m 23,0 km/h (4 Bft)
29.01.2015 20:18 3,4 C 2,2 C 89 % 974,8 hPa 0,0 l/m 0 min 0 min 0 W/m 14,6 km/h (3 Bft)
29.01.2015 20:20 3,4 C 2,2 C 89 % 974,7 hPa 0,0 l/m 0 min 0 min 0 W/m 14,6 km/h (3 Bft)
29.01.2015 20:22 3,4 C 2,2 C 89 % 974,6 hPa 0,0 l/m 0 min 0 min 0 W/m 12,6 km/h (3 Bft)
29.01.2015 20:24 3,4 C 2,2 C 89 % 974,6 hPa 0,0 l/m 0 min 0 min 0 W/m 14,6 km/h (3 Bft)
29.01.2015 20:26 3,4 C 2,2 C 89 % 974,5 hPa 0,0 l/m 0 min 0 min 0 W/m 18,8 km/h (3 Bft)
29.01.2015 20:28 3,4 C 2,2 C 89 % 974,5 hPa 0,0 l/m 0 min 0 min 0 W/m 12,6 km/h (3 Bft)
29.01.2015 20:30 3,4 C 2,2 C 89 % 974,5 hPa 0,0 l/m 0 min 0 min 0 W/m 10,5 km/h (2 Bft)
29.01.2015 20:32 3,4 C 2,2 C 89 % 974,4 hPa 0,0 l/m 0 min 0 min 0 W/m 12,6 km/h (3 Bft)
29.01.2015 20:34 3,4 C 2,2 C 89 % 974,4 hPa 0,0 l/m 0 min 0 min 0 W/m 6,3 km/h (2 Bft)
29.01.2015 20:36 3,4 C 2,2 C 89 % 974,4 hPa 0,0 l/m 0 min 0 min 0 W/m 8,4 km/h (2 Bft)
29.01.2015 20:38 3,4 C 2,2 C 89 % 974,3 hPa 0,0 l/m 0 min 0 min 0 W/m 6,3 km/h (2 Bft)
29.01.2015 20:40 3,4 C 2,2 C 89 % 974,3 hPa 0,0 l/m 0 min 0 min 0 W/m 10,5 km/h (2 Bft)
29.01.2015 20:42 3,4 C 2,2 C 89 % 974,2 hPa 0,0 l/m 0 min 0 min 0 W/m 14,6 km/h (3 Bft)
29.01.2015 20:44 3,4 C 2,2 C 89 % 974,2 hPa 0,0 l/m 0 min 0 min 0 W/m 10,5 km/h (2 Bft)
29.01.2015 20:46 3,4 C 2,2 C 89 % 974,2 hPa 0,0 l/m 0 min 0 min 0 W/m 10,5 km/h (2 Bft)
29.01.2015 20:48 3,4 C 2,2 C 89 % 974,2 hPa 0,0 l/m 0 min 0 min 0 W/m 10,5 km/h (2 Bft)
29.01.2015 20:50 3,4 C 2,2 C 89 % 974,1 hPa 0,0 l/m 0 min 0 min 0 W/m 14,6 km/h (3 Bft)
29.01.2015 20:52 3,4 C 2,2 C 89 % 974,0 hPa 0,0 l/m 0 min 0 min 0 W/m 10,5 km/h (2 Bft)
29.01.2015 20:54 3,4 C 2,2 C 89 % 974,0 hPa 0,0 l/m 0 min 0 min 0 W/m 10,5 km/h (2 Bft)
29.01.2015 20:56 3,4 C 2,2 C 89 % 974,0 hPa 0,0 l/m 0 min 0 min 0 W/m 8,4 km/h (2 Bft)
29.01.2015 20:58 3,4 C 2,2 C 89 % 974,0 hPa 0,0 l/m 0 min 0 min 0 W/m 12,6 km/h (3 Bft)
29.01.2015 21:00 3,3 C 2,2 C 89 % 974,0 hPa 0,0 l/m 0 min 0 min 0 W/m 10,5 km/h (2 Bft)
29.01.2015 21:02 3,4 C 2,2 C 89 % 973,9 hPa 0,0 l/m 0 min 0 min 0 W/m 8,4 km/h (2 Bft)
29.01.2015 21:04 3,3 C 1,7 C 89 % 973,9 hPa 0,0 l/m 0 min 0 min 0 W/m 8,4 km/h (2 Bft)
29.01.2015 21:06 3,3 C 1,7 C 89 % 973,8 hPa 0,0 l/m 0 min 0 min 0 W/m 8,4 km/h (2 Bft)
29.01.2015 21:08 3,3 C 1,7 C 89 % 973,9 hPa 0,0 l/m 0 min 0 min 0 W/m 12,6 km/h (3 Bft)
29.01.2015 21:10 3,3 C 1,7 C 89 % 973,7 hPa 0,0 l/m 0 min 0 min 0 W/m 10,5 km/h (2 Bft)
29.01.2015 21:12 3,3 C 1,7 C 89 % 973,7 hPa 0,0 l/m 0 min 0 min 0 W/m 12,6 km/h (3 Bft)
29.01.2015 21:14 3,3 C 1,7 C 89 % 973,7 hPa 0,0 l/m 0 min 0 min 0 W/m 12,6 km/h (3 Bft)
29.01.2015 21:16 3,3 C 1,7 C 89 % 973,7 hPa 0,0 l/m 0 min 0 min 0 W/m 14,6 km/h (3 Bft)
29.01.2015 21:18 3,3 C 1,7 C 89 % 973,7 hPa 0,0 l/m 0 min 0 min 0 W/m 10,5 km/h (2 Bft)
29.01.2015 21:20 3,3 C 1,7 C 89 % 973,7 hPa 0,0 l/m 0 min 0 min 0 W/m 10,5 km/h (2 Bft)
29.01.2015 21:22 3,2 C 1,7 C 89 % 973,6 hPa 0,0 l/m 0 min 0 min 0 W/m 8,4 km/h (2 Bft)
29.01.2015 21:24 3,2 C 1,7 C 89 % 973,6 hPa 0,0 l/m 0 min 0 min 0 W/m 8,4 km/h (2 Bft)
29.01.2015 21:26 3,2 C 1,7 C 89 % 973,6 hPa 0,0 l/m 0 min 0 min 0 W/m 14,6 km/h (3 Bft)
29.01.2015 21:28 3,2 C 1,7 C 89 % 973,5 hPa 0,0 l/m 0 min 0 min 0 W/m 12,6 km/h (3 Bft)
29.01.2015 21:30 3,2 C 1,7 C 89 % 973,4 hPa 0,0 l/m 0 min 0 min 0 W/m 10,5 km/h (2 Bft)
29.01.2015 21:32 3,2 C 1,7 C 89 % 973,4 hPa 0,0 l/m 0 min 0 min 0 W/m 14,6 km/h (3 Bft)
29.01.2015 21:34 3,2 C 1,7 C 89 % 973,4 hPa 0,0 l/m 0 min 0 min 0 W/m 10,5 km/h (2 Bft)
29.01.2015 21:36 3,2 C 1,7 C 89 % 973,3 hPa 0,0 l/m 0 min 0 min 0 W/m 8,4 km/h (2 Bft)
29.01.2015 21:38 3,2 C 1,7 C 89 % 973,2 hPa 0,0 l/m 0 min 0 min 0 W/m 14,6 km/h (3 Bft)
29.01.2015 21:40 3,2 C 1,7 C 89 % 973,1 hPa 0,0 l/m 0 min 0 min 0 W/m 14,6 km/h (3 Bft)
29.01.2015 21:42 3,2 C 1,7 C 89 % 973,1 hPa 0,0 l/m 0 min 0 min 0 W/m 16,7 km/h (3 Bft)
29.01.2015 21:44 3,2 C 1,7 C 89 % 973,1 hPa 0,0 l/m 0 min 0 min 0 W/m 14,6 km/h (3 Bft)
29.01.2015 21:46 3,2 C 1,7 C 89 % 973,0 hPa 0,0 l/m 0 min 0 min 0 W/m 12,6 km/h (3 Bft)
29.01.2015 21:48 3,2 C 1,7 C 89 % 973,1 hPa 0,0 l/m 0 min 0 min 0 W/m 10,5 km/h (2 Bft)
29.01.2015 21:50 3,1 C 1,7 C 89 % 973,1 hPa 0,0 l/m 0 min 0 min 0 W/m 12,6 km/h (3 Bft)
29.01.2015 21:52 3,1 C 1,7 C 89 % 973,1 hPa 0,0 l/m 0 min 0 min 0 W/m 14,6 km/h (3 Bft)
29.01.2015 21:54 3,1 C 1,7 C 89 % 973,1 hPa 0,0 l/m 0 min 0 min 0 W/m 8,4 km/h (2 Bft)
29.01.2015 21:56 3,1 C 1,7 C 89 % 973,1 hPa 0,0 l/m 0 min 0 min 0 W/m 4,2 km/h (1 Bft)
29.01.2015 21:58 3,1 C 1,7 C 89 % 973,0 hPa 0,0 l/m 0 min 0 min 0 W/m 4,2 km/h (1 Bft)
29.01.2015 22:00 3,1 C 1,7 C 89 % 973,1 hPa 0,0 l/m 0 min 0 min 0 W/m 8,4 km/h (2 Bft)
29.01.2015 22:02 3,0 C 1,7 C 89 % 973,0 hPa 0,0 l/m 0 min 0 min 0 W/m 8,4 km/h (2 Bft)
29.01.2015 22:04 3,0 C 1,7 C 89 % 973,1 hPa 0,0 l/m 0 min 0 min 0 W/m 8,4 km/h (2 Bft)
29.01.2015 22:06 3,0 C 1,7 C 89 % 973,0 hPa 0,0 l/m 0 min 0 min 0 W/m 8,4 km/h (2 Bft)
29.01.2015 22:08 3,0 C 1,7 C 89 % 973,0 hPa 0,0 l/m 0 min 0 min 0 W/m 8,4 km/h (2 Bft)
29.01.2015 22:10 2,9 C 1,7 C 89 % 973,0 hPa 0,0 l/m 0 min 0 min 0 W/m 8,4 km/h (2 Bft)
29.01.2015 22:12 2,9 C 1,7 C 89 % 972,9 hPa 0,0 l/m 0 min 0 min 0 W/m 10,5 km/h (2 Bft)
29.01.2015 22:14 2,9 C 1,7 C 89 % 972,9 hPa 0,0 l/m 0 min 0 min 0 W/m 8,4 km/h (2 Bft)
29.01.2015 22:16 2,9 C 1,7 C 90 % 972,9 hPa 0,0 l/m 0 min 0 min 0 W/m 10,5 km/h (2 Bft)
29.01.2015 22:18 2,9 C 1,7 C 90 % 972,8 hPa 0,0 l/m 0 min 0 min 0 W/m 10,5 km/h (2 Bft)
29.01.2015 22:20 2,9 C 1,7 C 90 % 972,8 hPa 0,0 l/m 0 min 0 min 0 W/m 10,5 km/h (2 Bft)
29.01.2015 22:22 2,9 C 1,7 C 90 % 972,8 hPa 0,0 l/m 0 min 0 min 0 W/m 6,3 km/h (2 Bft)
29.01.2015 22:24 2,9 C 1,7 C 90 % 972,8 hPa 0,0 l/m 0 min 0 min 0 W/m 6,3 km/h (2 Bft)
29.01.2015 22:26 2,9 C 1,7 C 90 % 972,9 hPa 0,0 l/m 0 min 0 min 0 W/m 6,3 km/h (2 Bft)
29.01.2015 22:28 2,9 C 1,7 C 90 % 972,8 hPa 0,0 l/m 0 min 0 min 0 W/m 6,3 km/h (2 Bft)
29.01.2015 22:30 2,8 C 1,7 C 90 % 972,9 hPa 0,0 l/m 0 min 0 min 0 W/m 8,4 km/h (2 Bft)
29.01.2015 22:32 2,8 C 1,7 C 90 % 972,8 hPa 0,0 l/m 0 min 0 min 0 W/m 8,4 km/h (2 Bft)
29.01.2015 22:34 2,8 C 1,7 C 90 % 972,8 hPa 0,0 l/m 0 min 0 min 0 W/m 8,4 km/h (2 Bft)
29.01.2015 22:36 2,8 C 1,7 C 90 % 972,8 hPa 0,0 l/m 0 min 0 min 0 W/m 10,5 km/h (2 Bft)
29.01.2015 22:38 2,8 C 1,7 C 90 % 972,8 hPa 0,0 l/m 0 min 0 min 0 W/m 10,5 km/h (2 Bft)
29.01.2015 22:40 2,8 C 1,7 C 90 % 972,8 hPa 0,0 l/m 0 min 0 min 0 W/m 10,5 km/h (2 Bft)
29.01.2015 22:42 2,8 C 1,7 C 90 % 972,8 hPa 0,0 l/m 0 min 0 min 0 W/m 10,5 km/h (2 Bft)
29.01.2015 22:44 2,8 C 1,7 C 90 % 972,7 hPa 0,0 l/m 0 min 0 min 0 W/m 14,6 km/h (3 Bft)
29.01.2015 22:46 2,8 C 1,7 C 90 % 972,6 hPa 0,0 l/m 0 min 0 min 0 W/m 10,5 km/h (2 Bft)
29.01.2015 22:48 2,8 C 1,7 C 90 % 972,6 hPa 0,0 l/m 0 min 0 min 0 W/m 14,6 km/h (3 Bft)
29.01.2015 22:50 2,8 C 1,7 C 90 % 972,5 hPa 0,0 l/m 0 min 0 min 0 W/m 12,6 km/h (3 Bft)
29.01.2015 22:52 2,8 C 1,7 C 90 % 972,5 hPa 0,0 l/m 0 min 0 min 0 W/m 10,5 km/h (2 Bft)
29.01.2015 22:54 2,8 C 1,7 C 90 % 972,5 hPa 0,0 l/m 0 min 0 min 0 W/m 10,5 km/h (2 Bft)
29.01.2015 22:56 2,8 C 1,7 C 90 % 972,5 hPa 0,0 l/m 0 min 0 min 0 W/m 18,8 km/h (3 Bft)
29.01.2015 22:58 2,8 C 1,7 C 90 % 972,4 hPa 0,0 l/m 0 min 0 min 0 W/m 12,6 km/h (3 Bft)
29.01.2015 23:00 2,8 C 1,7 C 90 % 972,4 hPa 0,0 l/m 0 min 0 min 0 W/m 14,6 km/h (3 Bft)
29.01.2015 23:02 2,8 C 1,7 C 90 % 972,3 hPa 0,0 l/m 0 min 0 min 0 W/m 16,7 km/h (3 Bft)
29.01.2015 23:04 2,8 C 1,7 C 90 % 972,3 hPa 0,0 l/m 0 min 0 min 0 W/m 12,6 km/h (3 Bft)
29.01.2015 23:06 2,8 C 1,7 C 90 % 972,2 hPa 0,0 l/m 0 min 0 min 0 W/m 10,5 km/h (2 Bft)
29.01.2015 23:08 2,8 C 1,7 C 90 % 972,2 hPa 0,0 l/m 0 min 0 min 0 W/m 14,6 km/h (3 Bft)
29.01.2015 23:10 2,8 C 1,7 C 90 % 972,2 hPa 0,0 l/m 0 min 0 min 0 W/m 12,6 km/h (3 Bft)
29.01.2015 23:12 2,8 C 1,7 C 90 % 972,2 hPa 0,0 l/m 0 min 0 min 0 W/m 14,6 km/h (3 Bft)
29.01.2015 23:14 2,8 C 1,7 C 90 % 972,1 hPa 0,0 l/m 0 min 0 min 0 W/m 16,7 km/h (3 Bft)
29.01.2015 23:16 2,8 C 1,7 C 90 % 972,1 hPa 0,0 l/m 0 min 0 min 0 W/m 14,6 km/h (3 Bft)
29.01.2015 23:18 2,8 C 1,7 C 90 % 972,1 hPa 0,0 l/m 0 min 0 min 0 W/m 10,5 km/h (2 Bft)
29.01.2015 23:20 2,8 C 1,7 C 90 % 972,1 hPa 0,0 l/m 0 min 0 min 0 W/m 10,5 km/h (2 Bft)
29.01.2015 23:22 2,8 C 1,7 C 90 % 972,1 hPa 0,0 l/m 0 min 0 min 0 W/m 14,6 km/h (3 Bft)
29.01.2015 23:24 2,8 C 1,7 C 90 % 972,0 hPa 0,0 l/m 0 min 0 min 0 W/m 10,5 km/h (2 Bft)
29.01.2015 23:26 2,8 C 1,7 C 90 % 972,0 hPa 0,0 l/m 0 min 0 min 0 W/m 10,5 km/h (2 Bft)
29.01.2015 23:28 2,8 C 1,7 C 90 % 972,0 hPa 0,0 l/m 0 min 0 min 0 W/m 10,5 km/h (2 Bft)
29.01.2015 23:30 2,8 C 1,7 C 90 % 971,9 hPa 0,0 l/m 0 min 0 min 0 W/m 12,6 km/h (3 Bft)
29.01.2015 23:32 2,8 C 1,7 C 90 % 972,0 hPa 0,0 l/m 0 min 0 min 0 W/m 10,5 km/h (2 Bft)
29.01.2015 23:34 2,8 C 1,7 C 90 % 972,0 hPa 0,0 l/m 0 min 0 min 0 W/m 14,6 km/h (3 Bft)
29.01.2015 23:36 2,8 C 1,7 C 90 % 971,9 hPa 0,0 l/m 0 min 0 min 0 W/m 14,6 km/h (3 Bft)
29.01.2015 23:38 2,8 C 1,7 C 90 % 971,9 hPa 0,0 l/m 0 min 0 min 0 W/m 14,6 km/h (3 Bft)
29.01.2015 23:40 2,8 C 1,7 C 90 % 971,9 hPa 0,0 l/m 0 min 0 min 0 W/m 18,8 km/h (3 Bft)
29.01.2015 23:42 2,8 C 1,7 C 90 % 971,8 hPa 0,0 l/m 0 min 0 min 0 W/m 16,7 km/h (3 Bft)
29.01.2015 23:44 2,8 C 1,7 C 90 % 971,8 hPa 0,0 l/m 0 min 0 min 0 W/m 16,7 km/h (3 Bft)
29.01.2015 23:46 2,8 C 1,7 C 90 % 971,7 hPa 0,0 l/m 0 min 0 min 0 W/m 18,8 km/h (3 Bft)
29.01.2015 23:48 2,8 C 1,7 C 90 % 971,7 hPa 0,0 l/m 0 min 0 min 0 W/m 10,5 km/h (2 Bft)
29.01.2015 23:50 2,8 C 1,7 C 90 % 971,7 hPa 0,0 l/m 0 min 0 min 0 W/m 18,8 km/h (3 Bft)
29.01.2015 23:52 2,8 C 1,7 C 89 % 971,7 hPa 0,0 l/m 0 min 0 min 0 W/m 16,7 km/h (3 Bft)
29.01.2015 23:54 2,7 C 1,7 C 89 % 971,7 hPa 0,0 l/m 0 min 0 min 0 W/m 14,6 km/h (3 Bft)
29.01.2015 23:56 2,7 C 1,7 C 89 % 971,7 hPa 0,0 l/m 0 min 0 min 0 W/m 12,6 km/h (3 Bft)
29.01.2015 23:58 2,7 C 1,7 C 89 % 971,6 hPa 0,0 l/m 0 min 0 min 0 W/m 14,6 km/h (3 Bft)
_ Min-Zeit 01:18 00:05 12:10 23:58 - - - - 21:56
Minimum _ 1,3 C 0,0 C 79 % 971,6 hPa - - - - 4,2 km/h (1 Bft)
_ Max-Zeit 12:14 12:02 01:06 00:05 13:38 08:44 00:00 13:46 07:58
Maximum _ 5,3 C 4,4 C 92 % 997,6 hPa 0,2 l/m 2 min 2 min 473 W/m 52,3 km/h
W (7 Bft)
Durchschnitt _ 3,0 C 1,8 C 87 % 985,6 hPa #0,2 l/m #2:34 h #55 min. 109 W/m 26,5 km/h (4 Bft)
© 2015 W. Hausmann